     2.00           OBSERVATION DATA    G (GPS)             RINEX VERSION / TYPE
teqc 2000Dec4 SOPAC / SCIGN 20010417 04:00:47UTC            PGM / RUN BY / DATE
HOLC HOLC_RIDGE___                                          MARKER NAME
40404M101                                                   MARKER NUMBER
SVW                                                         OBSERVER / AGENCY
LP02896 ASHTECH Z-XII3 CC00 1D02*22                         REC # / TYPE / VERS
CR14570 ASH700936E_C CAFG                                   ANT # / TYPE
 -2459518.0200 -4655992.2400  3589168.8100                  APPROX POSITION XYZ
        0.0825        0.0000        0.0000                  ANTENNA: DELTA H/E/N
     1     1                                                WAVELENGTH FACT L1/2
     5    L1    L2    C1    P1    P2                        # / TYPES OF OBSERV
  2001     2    20     0     0   30.0000000     GPS         TIME OF FIRST OBS
    30.0000                                                 INTERVAL
                                                            END OF HEADER
 01  2 20  0  0 30.0000000  0  7G 6G17G 5G24G25G10G30
 -17452664.872 9 -13439317.35248  21711684.167    21711683.2554   21711691.3034
 -10277132.762 9  -7994853.45045  23838594.704    23838593.4864   23838606.8984
 -24477753.648 9 -19062437.96048  20912109.771    20912108.4794   20912116.3064
  -9323997.933 9  -7004223.59547  22723093.796    22723092.8614   22723102.6434
  -3844322.825 7  -2990243.32645  25320089.111    25320088.3074   25320105.5394
 -21276107.090 9 -16135517.90648  20811873.799    20811872.2514   20811880.4914
 -22309249.928 9 -17153131.41149  20464660.172    20464659.6214   20464666.2064
 01  2 20  0  1  0.0000000  0  7G 6G17G 5G24G25G10G30
 -17510427.323 9 -13484326.98548  21700692.314    21700691.4144   21700699.3644
 -10356700.598 9  -8056854.13945  23823453.386    23823452.1374   23823465.3554
 -24415821.398 9 -19014179.11148  20923895.141    20923893.8504   20923901.6644
  -9246301.388 9  -6943680.88347  22737878.964    22737878.0154   22737887.8254
  -3851201.460 7  -2995603.27145  25318779.859    25318779.1534   25318796.3934
 -21291254.870 9 -16147321.33348  20808991.261    20808989.7064   20808997.8774
 -22308859.253 9 -17152826.97649  20464734.466    20464733.9304   20464740.5224
 01  2 20  0  1 30.0000000  0  7G 6G17G 5G24G25G10G30
 -17568076.551 9 -13529248.39348  21689721.985    21689721.0994   21689729.0354
 -10436072.545 9  -8118702.18946  23808349.307    23808347.9844   23808361.2054
 -24353430.517 9 -18965562.88048  20935767.763    20935766.4604   20935774.2834
  -9168537.157 9  -6883085.42947  22752677.009    22752676.1104   22752685.9104
  -3857634.408 8  -3000615.99645  25317556.189    25317555.0514   25317572.6654
 -21305780.425 9 -16158639.90848  20806227.124    20806225.5504   20806233.6744
 -22307875.288 9 -17152060.23149  20464921.728    20464921.1904   20464927.7754
 01  2 20  0  2  0.0000000  0  7G 6G17G 5G24G25G10G30
 -17625613.560 9 -13574082.35148  21678773.005    21678772.1184   21678780.0354
 -10515250.280 9  -8180398.91946  23793282.198    23793280.8254   23793294.0614
 -24290584.808 9 -18916592.23648  20947726.918    20947725.6314   20947733.4664
  -9090708.621 9  -6822439.87247  22767487.356    22767486.4174   22767496.2424
  -3863624.513 7  -3005283.62944  25316416.621    25316415.8384   25316432.4644
 -21319685.150 9 -16169474.71248  20803581.111    20803579.5424   20803587.6134
 -22306299.821 9 -17150832.57149  20465221.514    20465220.9724   20465227.5784
 01  2 20  0  2 30.0000000  0  7G 6G17G 5G24G25G10G30
 -17683035.337 9 -13618826.52348  21667845.940    21667845.0434   21667852.9714
 -10594231.004 9  -8241942.12946  23778252.507    23778251.1994   23778264.3974
 -24227283.863 9 -18867266.87448  20959772.712    20959771.4324   20959779.2824
  -9012815.511 9  -6761743.99947  22782309.931    22782309.0064   22782318.8754
  -3869169.880 7  -3009604.69144  25315361.109    25315360.1424   25315377.1314
 -21332966.566 9 -16179823.83648  20801053.743    20801052.1414   20801060.1684
 -22304130.636 9 -17149142.29049  20465634.303    20465633.7574   20465640.3584
 01  2 20  0  3  0.0000000  0  7G 6G17G 5G24G25G10G30
 -17740342.304 9 -13663481.22748  21656940.689    21656939.8134   21656947.7524
 -10673015.584 9  -8303332.50446  23763260.119    23763258.8294   23763271.9944
 -24163530.946 9 -18817589.31148  20971904.563    20971903.2734   20971911.1474
  -8934860.138 9  -6700999.60547  22797144.374    22797143.4664   22797153.2724
  -3874272.567 8  -3013580.82244  25314389.750    25314388.8024   25314405.8934
 -21345625.723 9 -16189688.06748  20798644.685    20798643.0994   20798651.1084
 -22301368.894 9 -17146990.25749  20466159.792    20466159.2634   20466165.8694
 01  2 20  0  3 30.0000000  0  7G 6G17G 5G24G25G10G30
 -17797532.525 9 -13708044.96248  21646057.693    21646056.8174   21646064.7994
 -10751602.729 9  -8364569.03946  23748305.303    23748304.0424   23748317.1994
 -24099327.137 9 -18767560.41448  20984122.140    20984120.8354   20984128.7454
  -8856843.691 9  -6640207.63047  22811990.490    22811989.5684   22811999.2744
  -3878932.370 8  -3017211.82045  25313503.590    25313502.4674   25313519.2494
 -21357661.109 9 -16199066.25648  20796354.377    20796352.7854   20796360.7714
 -22298013.429 9 -17144375.59849  20466798.302    20466797.7614   20466804.4154
 01  2 20  0  4  0.0000000  0  7G 6G17G 5G24G25G10G30
 -17854606.012 9 -13752517.72748  21635196.903    21635196.0064   21635203.9994
 -10829993.099 9  -8425652.23446  23733388.021    23733386.7394   23733399.7714
 -24034675.422 9 -18717182.49248  20996424.938    20996423.6394   20996431.5934
  -8778768.679 9  -6579370.01447  22826847.774    22826846.8334   22826856.4914
  -3883151.160 7  -3020499.22344  25312700.796    25312699.7344   25312716.4914
 -21369073.319 9 -16207958.84448  20794182.672    20794181.0784   20794189.0764
 -22294065.639 9 -17141299.37649  20467549.491    20467548.9614   20467555.6284
 01  2 20  0  4 30.0000000  0  7G 6G17G 5G24G25G10G30
 -17911562.282 9 -13796899.15948  21624358.339    21624357.4494   21624365.5164
 -10908186.806 9  -8486582.21246  23718508.171    23718506.8604   23718519.7254
 -23969577.931 9 -18666457.22148  21008812.597    21008811.2734   21008819.2494
  -8700636.855 9  -6518488.12147  22841715.829    22841714.8604   22841724.5524
  -3886930.126 8  -3023443.90245  25311981.574    25311981.0104   25311996.9914
 -21379862.457 9 -16216365.92848  20792129.520    20792127.9294   20792135.8994
 -22289525.465 9 -17137761.57149  20468413.491    20468412.9434   20468419.5974
 01  2 20  0  5  0.0000000  0  7G 6G17G 5G24G25G10G30
 -17968397.891 9 -13841186.56848  21613542.771    21613541.8864   21613550.0134
 -10986180.991 9  -8547356.69746  23703666.192    23703664.8154   23703677.7494
 -23904034.512 9 -18615384.46948  21021285.053    21021283.7684   21021291.7894
  -8622447.693 9  -6457561.55047  22856594.607    22856593.7204   22856603.4804
  -3890267.499 8  -3026044.46245  25311346.634    25311345.4604   25311361.7184
 -21390026.258 9 -16224285.73248  20790195.362    20790193.7884   20790201.7424
 -22284390.764 9 -17133760.49449  20469390.561    20469390.0264   20469396.7034
 01  2 20  0  5 30.0000000  0  7G 6G17G 5G24G25G10G30
 -18025112.267 9 -13885379.51448  21602750.319    21602749.4384   21602757.5594
 -11063975.803 9  -8607975.83646  23688862.162    23688860.7934   23688873.6404
 -23838047.524 9 -18563966.08448  21033842.032    21033840.7354   21033848.6994
  -8544202.922 9  -6396591.64147  22871484.130    22871483.2824   22871493.0594
  -3893164.589 8  -3028301.93945  25310795.407    25310794.5214   25310810.5554
 -21399564.490 9 -16231718.07648  20788380.313    20788378.7054   20788386.6604
 -22278662.036 9 -17129296.54149  20470480.713    20470480.1614   20470486.8164
 01  2 20  0  6  0.0000000  0  7G 6G17G 5G24G25G10G30
 -18081705.492 9 -13929478.05848  21591980.948    21591980.0534   21591988.0994
 -11141571.777 9  -8668440.04646  23674096.076    23674094.7554   23674107.4284
 -23771620.010 9 -18512204.42648  21046482.892    21046481.5544   21046489.4894
  -8465905.664 9  -6335580.84247  22886383.756    22886382.8664   22886392.5864
  -3895623.194 8  -3030217.77945  25310328.025    25310327.0744   25310342.8304
 -21408478.404 9 -16238663.94148  20786684.044    20786682.3994   20786690.3404
 -22272340.218 9 -17124370.44549  20471683.739    20471683.1694   20471689.8224
 01  2 20  0  6 30.0000000  0  7G 6G17G 5G24G25G10G30
 -18138176.416 9 -13973481.31248  21581234.867    21581233.9734   21581241.9444
 -11218968.648 9  -8728749.11546  23659367.815    23659366.5724   23659379.1554
 -23704754.055 9 -18460101.13848  21059207.030    21059205.7354   21059213.6434
  -8387556.848 9  -6274529.86847  22901293.193    22901292.2554   22901301.9484
  -3897644.318 8  -3031792.68645  25309943.647    25309942.9524   25309958.7804
 -21416767.543 9 -16245122.97848  20785106.645    20785105.0014   20785112.9274
 -22265425.301 9 -17118982.19849  20472999.576    20472999.0184   20473005.6634
 01  2 20  0  7  0.0000000  0  7G 6G17G 5G24G25G10G30
 -18194522.730 9 -14017387.45048  21570512.475    21570511.5464   21570519.4664
 -11296164.565 9  -8788901.58046  23644677.846    23644676.6014   23644689.1294
 -23637450.251 9 -18407656.65548  21072014.599    21072013.2594   21072021.1794
  -8309157.037 9  -6213439.15447  22916212.224    22916211.3174   22916221.0004
  -3899226.829 8  -3033025.82845  25309642.312    25309641.6894   25309658.0434
 -21424430.084 9 -16251093.73948  20783648.477    20783646.8514   20783654.7124
 -22257916.015 9 -17113130.79349  20474428.518    20474427.9494   20474434.6164
 01  2 20  0  7 30.0000000  0  7G 6G17G 5G24G25G10G30
 -18250744.517 9 -14061196.58148  21559813.785    21559812.8624   21559820.7724
 -11373160.402 9  -8848898.16946  23630025.850    23630024.5354   23630037.1514
 -23569711.935 9 -18354873.61548  21084904.747    21084903.4154   21084911.3394
  -8230708.507 9  -6152310.49247  22931140.516    22931139.5324   22931149.2854
  -3900373.345 8  -3033919.22945  25309424.002    25309423.4714   25309440.1254
 -21431467.225 9 -16256577.20448  20782309.374    20782307.7284   20782315.5494
 -22249813.723 9 -17106817.32649  20475970.280    20475969.7414   20475976.4124
 01  2 20  0  8  0.0000000  0  7G 6G17G 5G24G25G10G30
 -18306839.811 9 -14104907.12448  21549139.123    21549138.2124   21549146.1634
 -11449954.742 9  -8908737.73946  23615412.182    23615410.9724   23615423.4684
 -23501540.275 9 -18301752.87848  21097877.315    21097876.0244   21097883.9794
  -8152212.148 9  -6091144.53646  22946077.832    22946076.8024   22946086.6544
  -3901083.737 8  -3034472.79344  25309289.025    25309288.3654   25309304.7584
 -21437878.023 9 -16261572.59048  20781089.428    20781087.7724   20781095.5554
 -22241117.655 9 -17100041.15849  20477625.058    20477624.5264   20477631.1894
 01  2 20  0  8 30.0000000  0  7G 6G17G 5G24G25G10G30
 -18362806.346 9 -14148517.34548  21538489.004    21538488.0854   21538496.0324
 -11526546.121 9  -8968419.15046  23600837.266    23600836.0414   23600848.4014
 -23432935.883 9 -18248294.96948  21110932.372    21110931.0574   21110938.9944
  -8073668.356 9  -6029941.63346  22961024.027    22961023.0544   22961033.0614
  -3901357.163 8  -3034685.89344  25309237.319    25309236.2594   25309251.9154
 -21443661.181 9 -16266078.91148  20779988.945    20779987.2944   20779995.0524
 -22231826.870 9 -17092801.58449  20479393.013    20479392.4724   20479399.1564
 01  2 20  0  9  0.0000000  0  7G 6G17G 5G24G25G10G30
 -18418644.520 9 -14192027.53548  21527863.326    21527862.4014   21527870.3644
 -11602935.721 9  -9027943.33946  23586300.724    23586299.4654   23586311.7134
 -23363902.407 9 -18194502.70448  21124069.049    21124067.7324   21124075.6464
  -7995079.986 9  -5968703.98746  22975978.842    22975977.9114   22975987.9594
  -3901196.629 8  -3034560.84544  25309267.890    25309267.0904   25309282.0674
 -21448817.852 9 -16270097.06048  20779007.682    20779006.0144   20779013.7564
 -22221942.648 9 -17085099.58949  20481273.898    20481273.3504   20481280.0294
 01  2 20  0  9 30.0000000  0  7G 6G17G 5G24G25G10G30
 -18474352.793 9 -14235436.50548  21517262.318    21517261.3704   21517269.3454
 -11679122.843 9  -9087309.75946  23571802.698    23571801.4614   23571813.5454
 -23294441.570 9 -18140377.42948  21137286.983    21137285.6924   21137293.6464
  -7916447.613 9  -5907432.07546  22990942.078    22990941.1724   22990951.2364
  -3900602.780 7  -3034098.06944  25309380.865    25309380.0704   25309394.6254
 -21453347.723 9 -16273626.79248  20778145.615    20778143.9704   20778151.6914
 -22211465.122 9 -17076935.27949  20483267.707    20483267.1794   20483273.8314
 01  2 20  0 10  0.0000000  0  7G 6G17G 5G24G25G10G30
 -18529930.339 9 -14278743.61748  21506686.212    21506685.2724   21506693.2134
 -11755107.113 9  -9146518.11146  23557343.399    23557342.0924   23557353.9884
 -23224555.685 9 -18085920.94648  21150585.838    21150584.5654   21150592.5574
  -7837773.408 9  -5846127.55947  23005913.390    23005912.4684   23005922.4784
  -3899576.441 7  -3033298.35444  25309576.065    25309575.6554   25309589.9724
 -21457251.284 9 -16276668.49948  20777402.741    20777401.1154   20777408.8414
 -22200394.834 9 -17068309.08249  20485374.338    20485373.8114   20485380.4494
 01  2 20  0 10 30.0000000  0  7G 6G17G 5G24G25G10G30
 -18585376.286 9 -14321948.16748  21496135.106    21496134.1764   21496142.0944
 -11830888.682 9  -9205568.49746  23542922.602    23542921.2754   23542932.9694
 -23154247.123 9 -18031135.09348  21163965.151    21163963.8734   21163971.9184
  -7759058.869 9  -5784791.59247  23020892.349    23020891.4494   23020901.4604
  -3898118.828 8  -3032162.55944  25309853.615    25309852.4654   25309867.6314
 -21460528.486 9 -16279222.11848  20776779.043    20776777.4264   20776785.2134
 -22188731.916 9 -17059221.08049  20487593.725    20487593.1844   20487599.8284
 01  2 20  0 11  0.0000000  0  7G 6G17G 5G24G25G10G30
 -18640689.489 9 -14365049.28648  21485609.282    21485608.3434   21485616.2834
 -11906467.124 9  -9264460.61946  23528540.310    23528539.0424   23528550.6824
 -23083517.920 9 -17976021.48148  21177424.464    21177423.1954   21177431.2984
  -7680305.706 9  -5723425.55247  23035878.684    23035877.7934   23035887.7954
  -3896230.672 8  -3030691.23345  25310212.929    25310211.8344   25310226.8254
 -21463179.433 9 -16281287.75848  20776274.488    20776272.8964   20776280.7244
 -22176476.835 9 -17049671.66649  20489925.757    20489925.2204   20489931.8864
 01  2 20  0 11 30.0000000  0  7G 6G17G 5G24G25G10G30
 -18695867.908 9 -14408045.37748  21475109.029    21475108.1124   21475116.1114
 -11981841.255 9  -9323193.54446  23514196.944    23514195.6514   23514207.2954
 -23012369.422 9 -17920581.14148  21190963.598    21190962.3324   21190970.4874
  -7601513.890 9  -5662029.39846  23050872.342    23050871.4334   23050881.4624
  -3893912.235 8  -3028884.68645  25310654.062    25310653.0004   25310668.4094
 -21465203.238 9 -16282864.71748  20775889.275    20775887.7124   20775895.6084
 -22163629.137 9 -17039660.46849  20492370.552    20492370.0274   20492376.7074
 01  2 20  0 12  0.0000000  0  7G 6G17G 5G24G25G10G30
 -18750909.626 9 -14450934.94748  21464634.896    21464633.9734   21464641.9944
 -12057010.036 9  -9381766.45346  23499892.635    23499891.3544   23499902.9854
 -22940802.909 9 -17864815.07348  21204582.323    21204581.0744   21204589.2444
  -7522684.459 9  -5600603.92746  23065873.053    23065872.1104   23065882.2034
  -3891163.907 8  -3026743.13645  25311176.835    25311176.0174   25311191.2674
 -21466599.391 9 -16283952.59148  20775623.539    20775621.9764   20775629.8984
 -22150188.229 9 -17029187.02849  20494928.276    20494927.7574   20494934.4104
 01  2 20  0 12 30.0000000  0  7G 6G17G 5G24G25G10G30
 -18805814.536 9 -14493717.91948  21454186.768    21454185.8664   21454193.8964
 -12131974.045 9  -9440179.80746  23485627.176    23485625.9304   23485637.6444
 -22868821.620 9 -17808725.80648  21218279.935    21218278.6714   21218286.8964
  -7443819.541 9  -5539150.78846  23080880.496    23080879.5404   23080889.7584
  -3887987.300 8  -3024267.86445  25311781.454    25311780.6494   25311795.9464
 -21467368.694 9 -16284552.01348  20775477.042    20775475.5084   20775483.5054
 -22136155.266 9 -17018252.24749  20497598.655    20497598.1084   20497604.7414
 01  2 20  0 13  0.0000000  0  7G 6G17G 5G24G25G10G30
 -18860580.520 9 -14536392.62248  21443765.115    21443764.1914   21443772.2284
 -12206732.248 9  -9498432.78946  23471400.983    23471399.7594   23471411.5204
 -22796426.572 9 -17752314.12048  21232056.321    21232055.0544   21232063.2834
  -7364919.753 9  -5477670.48846  23095894.582    23095893.6654   23095903.9704
  -3884382.531 8  -3021459.01345  25312467.238    25312466.3744   25312482.2064
 -21467510.479 9 -16284662.45548  20775449.963    20775448.4564   20775456.4764
 -22121529.883 9 -17006855.83549  20500381.781    20500381.2614   20500387.8274
 01  2 20  0 13 30.0000000  0  7G 6G17G 5G24G25G10G30
 -18915206.023 9 -14578957.87948  21433370.163    21433369.2474   21433377.2934
 -12281283.628 9  -9556524.62746  23457214.181    23457212.9604   23457224.6504
 -22723619.569 9 -17695581.45548  21245911.117    21245909.8334   21245918.0534
  -7285985.991 9  -5416163.72146  23110915.172    23110914.3474   23110924.6474
  -3880350.718 8  -3018317.36245  25313234.487    25313233.5934   25313249.6024
 -21467024.720 9 -16284283.91748  20775542.422    20775540.8924   20775548.8894
 -22106311.958 9 -16994997.72149  20503277.713    20503277.1374   20503283.6904
 01  2 20  0 14  0.0000000  0  7G 6G17G 5G24G25G10G30
 -18969692.413 9 -14621414.72148  21423001.643    21423000.7354   21423008.8074
 -12355630.510 9  -9614457.09747  23443066.389    23443065.1544   23443076.7984
 -22650405.484 9 -17638531.55948  21259843.340    21259842.0574   21259850.2484
  -7207022.600 9  -5354633.85746  23125941.459    23125940.5954   23125950.8824
  -3875895.356 8  -3014845.67445  25314082.245    25314081.4764   25314097.2084
 -21465914.028 9 -16283418.39848  20775753.723    20775752.2064   20775760.2384
 -22090504.573 9 -16982680.26349  20506285.712    20506285.1644   20506291.7184
 01  2 20  0 14 30.0000000  0  7G 6G17G 5G24G25G10G30
 -19024036.659 9 -14663760.81248  21412660.215    21412659.2954   21412667.3634
 -12429770.490 9  -9672228.34147  23428957.907    23428956.6914   23428968.2614
 -22576784.445 9 -17581164.56348  21273853.087    21273851.7994   21273859.8964
  -7128028.168 9  -5293079.79346  23140973.651    23140972.7384   23140983.1164
  -3871015.675 8  -3011043.37945  25315010.700    25315009.6644   25315025.8714
 -21464176.321 9 -16282064.30748  20776084.421    20776082.8774   20776090.8904
 -22074105.945 9 -16969902.10749  20509406.299    20509405.7344   20509412.2544
 01  2 20  0 15  0.0000000  0  7G 6G17G 5G24G25G10G30
 -19078237.172 9 -14705994.89348  21402346.109    21402345.1754   21402353.2504
 -12503702.961 9  -9729837.89147  23414888.872    23414887.6414   23414899.2644
 -22502758.185 9 -17523481.80248  21287939.881    21287938.5674   21287946.5944
  -7049004.072 9  -5231502.61446  23156011.384    23156010.5074   23156020.8904
  -3865712.050 8  -3006910.70845  25316019.951    25316019.2344   25316035.0334
 -21461811.689 9 -16280221.70148  20776534.384    20776532.8364   20776540.8224
 -22057116.181 9 -16956663.31549  20512639.318    20512638.7664   20512645.2814
 01  2 20  0 15 30.0000000  0  7G 6G17G 5G24G25G10G30
 -19132294.409 9 -14748117.34448  21392059.234    21392058.3174   21392066.4184
 -12577429.428 9  -9787286.93247  23400858.977    23400857.8134   23400869.4534
 -22428330.826 9 -17465486.50648  21302102.977    21302101.6824   21302109.6424
  -6969952.730 9  -5169904.20646  23171054.339    23171053.5134   23171063.8834
  -3859987.315 8  -3002449.89145  25317109.604    25317108.8104   25317124.0574
 -21458822.311 9 -16277892.28848  20777103.230    20777101.6924   20777109.6834
 -22039537.576 9 -16942965.70049  20515984.419    20515983.8704   20515990.3634
 01  2 20  0 16  0.0000000  0  7G 6G17G 5G24G25G10G30
 -19186205.771 9 -14790126.12648  21381800.153    21381799.2494   21381807.3464
 -12650948.347 9  -9844574.24347  23386868.583    23386867.4394   23386879.0754
 -22353503.168 9 -17407179.28648  21316342.229    21316340.9244   21316348.9144
  -6890874.748 9  -5108285.04646  23186102.542    23186101.7154   23186111.8834
  -3853841.535 8  -2997660.98645  25318279.038    25318278.2324   25318293.7284
 -21455206.887 9 -16275075.05248  20777791.241    20777789.6864   20777797.6704
 -22021369.278 9 -16928808.57849  20519441.756    20519441.1764   20519447.6484
 01  2 20  0 16 30.0000000  0  7G 6G17G 5G24G25G10G30
 -19239970.444 9 -14832020.59148  21371569.030    21371568.1214   21371576.1964
 -12724259.920 9  -9901699.98247  23372917.677    23372916.5374   23372928.2104
 -22278277.984 9 -17348562.29548  21330657.086    21330655.7844   21330663.8324
  -6811772.060 9  -5046646.63646  23201155.447    23201154.5654   23201164.5784
  -3847275.973 8  -2992545.01245  25319528.405    25319527.7254   25319543.1244
 -21450966.073 9 -16271770.48548  20778598.240    20778596.6874   20778604.6374
 -22002612.209 9 -16914192.66449  20523011.048    20523010.5054   20523016.9974
 01  2 20  0 17  0.0000000  0  7G 6G17G 5G24G25G10G30
 -19293585.492 9 -14873798.48748  21361366.336    21361365.4254   21361373.4644
 -12797362.200 9  -9958662.65047  23359006.535    23359005.3784   23359017.1174
 -22202655.730 9 -17289635.91548  21345047.467    21345046.2124   21345054.2894
  -6732643.622 9  -4984988.16946  23216213.214    23216212.2914   23216222.2254
  -3840290.052 8  -2987101.45445  25320857.968    25320857.2774   25320872.4704
 -21446098.624 9 -16267977.65848  20779524.478    20779522.9164   20779530.8604
 -21983265.396 9 -16899117.22949  20526692.610    20526692.0874   20526698.5604
 01  2 20  0 17 30.0000000  0  7G 6G17G 5G24G25G10G30
 -19347051.598 9 -14915460.31848  21351191.996    21351191.0984   21351199.1194
 -12870256.793 9 -10015463.47947  23345135.036    23345133.8404   23345145.5224
 -22126640.616 9 -17230403.40348  21359512.710    21359511.4084   21359519.5764
  -6653492.935 9  -4923312.35946  23231275.106    23231274.1444   23231284.1154
  -3832886.965 8  -2981332.85645  25322266.858    25322265.9504   25322281.2144
 -21440606.848 9 -16263698.33148  20780569.467    20780567.9024   20780575.8564
 -21963331.119 9 -16883584.02149  20530485.996    20530485.4414   20530491.9404
 01  2 20  0 18  0.0000000  0  7G 6G17G 5G24G25G10G30
 -19400366.713 9 -14957004.50548  21341046.410    21341045.5124   21341053.4714
 -12942942.504 9 -10072101.54447  23331303.328    23331302.1464   23331313.6934
 -22050234.107 9 -17170865.92048  21374052.379    21374051.0924   21374059.2744
  -6574320.317 9  -4861619.46946  23246341.132    23246340.2434   23246350.2694
  -3825067.044 8  -2975239.45645  25323754.989    25323754.1004   25323769.3424
 -21434490.351 9 -16258932.21548  20781733.371    20781731.8264   20781739.7644
 -21942809.366 9 -16867593.04648  20534391.098    20534390.5674   20534397.1224
 01  2 20  0 18 30.0000000  0  7G 6G17G 5G24G25G10G30
 -19453530.001 9 -14998430.37048  21330929.712    21330928.8054   21330936.7024
 -13015419.709 9 -10128577.14147  23317511.368    23317510.1734   23317521.5094
 -21973438.894 9 -17111025.53348  21388666.064    21388664.7564   21388672.9794
  -6495127.617 9  -4799910.91246  23261411.046    23261410.1004   23261420.2364
  -3816832.382 8  -2968822.85245  25325322.020    25325320.8864   25325336.4114
 -21427750.003 9 -16253679.96748  20783015.997    20783014.4194   20783022.4094
 -21921701.155 9 -16851145.08048  20538407.852    20538407.2974   20538413.8924
 01  2 20  0 19  0.0000000  0  7G 6G17G 5G24G25G10G30
 -19506539.771 9 -15039736.62648  21320842.212    21320841.2794   21320849.1744
 -13087687.567 9 -10184889.62347  23303759.242    23303757.9644   23303769.1114
 -21896256.670 9 -17050883.59548  21403353.361    21403352.0684   21403360.2984
  -6415915.269 9  -4738187.05946  23276484.714    23276483.7754   23276493.9864
  -3808183.142 8  -2962083.20845  25326967.822    25326966.6264   25326982.5794
 -21420385.916 9 -16247941.70348  20784417.295    20784415.7484   20784423.7314
 -21900006.562 9 -16834240.20848  20542536.109    20542535.5794   20542542.2034
 01  2 20  0 19 30.0000000  0  7G 6G17G 5G24G25G10G30
 -19559395.725 9 -15080923.01048  21310783.940    21310783.0324   21310790.9754
 -13159746.850 9 -10241039.54947  23290046.690    23290045.4674   23290056.4324
 -21818690.769 9 -16990442.67048  21418113.691    21418112.3894   21418120.6184
  -6336685.806 9  -4676449.86746  23291561.788    23291560.7384   23291571.0624
  -3799121.709 9  -2955022.40445  25328692.235    25328690.9814   25328707.1304
 -21412399.474 9 -16241718.46848  20785937.053    20785935.5064   20785943.4824
 -21877727.205 9 -16816879.65948  20546775.713    20546775.1934   20546781.8394
 01  2 20  0 20  0.0000000  0  7G 6G17G 5G24G25G10G30
 -19612095.277 9 -15121987.52548  21300755.543    21300754.6354   21300762.6044
 -13231596.125 9 -10297025.85947  23276374.207    23276372.9714   23276383.6864
 -21740742.350 9 -16929703.68348  21432946.845    21432945.5504   21432953.7464
  -6257439.041 9  -4614699.17146  23306642.013    23306640.9284   23306651.3544
  -3789648.425 9  -2947640.65045  25330495.071    25330493.9144   25330509.8564
 -21403789.639 9 -16235009.47049  20787575.443    20787573.8924   20787581.8904
 -21854862.501 9 -16799062.99748  20551126.762    20551126.2024   20551132.8764
 01  2 20  0 20 30.0000000  0  7G 6G17G 5G24G25G10G30
 -19664637.426 9 -15162929.41148  21290757.125    21290756.1864   21290764.1214
 -13303235.292 9 -10352848.46646  23262741.704    23262740.3704   23262750.9614
 -21662414.062 9 -16868668.72048  21447852.273    21447850.9814   21447859.1474
  -6178176.550 9  -4552936.24546  23321725.103    23321724.0474   23321734.6294
  -3779764.312 9  -2939938.76345  25332376.051    25332374.7424   25332390.8894
 -21394557.675 9 -16227815.72149  20789332.225    20789330.6764   20789338.6374
 -21831413.644 9 -16780791.17048  20555588.828    20555588.2924   20555594.9914
 01  2 20  0 21  0.0000000  0  7G 6G17G 5G24G25G10G30
 -19717019.309 9 -15203746.39048  21280789.163    21280788.2574   21280796.1214
 -13374662.720 9 -10408506.05946  23249149.249    23249148.0304   23249158.6104
 -21583706.433 9 -16807338.14148  21462829.900    21462828.5934   21462836.7334
  -6098898.173 9  -4491160.93346  23336811.162    23336810.1924   23336820.7984
  -3769469.475 9  -2931916.83445  25334335.000    25334333.6674   25334350.0504
 -21384702.111 9 -16220136.02349  20791207.628    20791206.0974   20791214.0604
 -21807379.634 9 -16762063.36648  20560162.373    20560161.8364   20560168.4774
 01  2 20  0 21 30.0000000  0  7G 6G17G 5G24G25G10G30
 -19769241.117 9 -15244438.64648  21270851.672    21270850.7564   21270858.5524
 -13445879.488 9 -10463999.51646  23235596.934    23235595.7624   23235606.3264
 -21504623.258 9 -16745714.94248  21477878.995    21477877.6854   21477885.8054
  -6019606.071 9  -4429374.90846  23351899.921    23351898.8874   23351909.5684
  -3758766.839 9  -2923577.13845  25336371.582    25336370.3254   25336386.7994
 -21374225.221 9 -16211972.18649  20793201.299    20793199.7774   20793207.7004
 -21782762.567 9 -16742881.23248  20564846.876    20564846.3134   20564852.9414
 01  2 20  0 22  0.0000000  0  7G 6G17G 5G24G25G10G30
 -19821300.587 9 -15285004.39948  21260945.052    21260944.1254   21260951.8624
 -13516884.523 9 -10519327.97846  23222085.013    23222083.8464   23222094.3114
 -21425165.931 9 -16683800.19348  21492999.266    21492997.9474   21493006.0424
  -5940300.622 9  -4367578.50846  23366991.285    23366990.3094   23367000.8074
  -3747656.404 9  -2914919.67245  25338485.981    25338484.2724   25338500.8984
 -21363126.747 9 -16203323.99149  20795313.236    20795311.7154   20795319.6184
 -21757562.422 9 -16723244.75448  20569642.271    20569641.7234   20569648.3464
 01  2 20  0 22 30.0000000  0  7G 6G17G 5G24G25G10G30
 -19873199.177 9 -15325444.79248  21251069.006    21251068.1024   21251075.8004
 -13587680.611 9 -10574493.62546  23208612.884    23208611.6834   23208622.1774
 -21345339.692 9 -16621597.98648  21508189.707    21508188.3914   21508196.4974
  -5860985.750 9  -4305774.77646  23382084.505    23382083.5114   23382093.8214
  -3736142.559 9  -2905947.85145  25340677.143    25340675.5854   25340691.7844
 -21351409.935 9 -16194193.98549  20797542.846    20797541.3224   20797549.2244
 -21731782.786 9 -16703156.73048  20574548.008    20574547.4474   20574554.0244
 01  2 20  0 23  0.0000000  0  7G 6G17G 5G24G25G10G30
 -19924932.680 9 -15365756.53748  21241224.388    21241223.4674   21241231.1554
 -13658264.547 9 -10629493.95046  23195181.064    23195179.8414   23195190.4254
 -21265144.084 9 -16559107.95048  21523450.399    21523449.0964   21523457.2204
  -5781660.306 9  -4243962.77246  23397179.722    23397178.7504   23397188.9084
  -3724223.501 9  -2896660.27745  25342945.296    25342943.7654   25342959.9524
 -21339072.604 9 -16184580.44649  20799890.545    20799889.0164   20799896.8864
 -21705421.943 9 -16682615.80648  20579564.270    20579563.7054   20579570.3324
 01  2 20  0 23 30.0000000  0  7G 6G17G 5G24G25G10G30
 -19976500.459 9 -15405939.14548  21231411.277    21231410.3414   21231418.0624
 -13728636.414 9 -10684329.05246  23181789.586    23181788.3734   23181799.0544
 -21184582.045 9 -16496332.38748  21538780.855    21538779.5534   21538787.7344
  -5702325.470 9  -4182143.47346  23412276.707    23412275.7294   23412285.8424
  -3711901.510 9  -2887058.74945  25345289.991    25345288.6324   25345304.5294
 -21326116.163 9 -16174484.49249  20802356.088    20802354.5304   20802362.3834
 -21678480.925 9 -16661622.80548  20584690.993    20584690.4354   20584697.0454
 01  2 20  0 24  0.0000000  0  7G 6G17G 5G24G25G10G30
 -20027900.933 9 -15445991.39348  21221630.014    21221629.0924   21221636.8294
 -13798796.068 9 -10738998.77546  23168438.530    23168437.2454   23168447.9714
 -21103655.690 9 -16433272.95148  21554180.655    21554179.3224   21554187.5844
  -5622982.373 9  -4120317.70646  23427375.134    23427374.2074   23427384.4444
  -3699177.723 9  -2877144.12945  25347711.289    25347710.0554   25347725.7044
 -21312541.040 9 -16163906.45149  20804939.340    20804937.7714   20804945.6204
 -21650960.536 9 -16640178.35248  20589927.963    20589927.4104   20589933.9914
 01  2 20  0 24 30.0000000  0  7G 6G17G 5G24G25G10G30
 -20079132.859 9 -15485912.30548  21211880.856    21211879.9414   21211887.6474
 -13868743.416 9 -10793503.06846  23155127.858    23155126.6104   23155137.3394
 -21022367.715 9 -16369931.73548  21569649.162    21569647.8544   21569656.2464
  -5543632.151 9  -4058486.40546  23442475.003    23442474.0734   23442484.4664
  -3686053.348 9  -2866917.39945  25350208.808    25350207.6764   25350223.0704
 -21298348.041 9 -16152846.95149  20807640.210    20807638.6124   20807646.4554
 -21622861.875 9 -16618283.29748  20595274.971    20595274.4284   20595280.9764
 01  2 20  0 25  0.0000000  0  7G 6G17G 5G24G25G10G30
 -20130196.041 9 -15525701.72348  21202163.826    21202162.9084   21202170.5674
 -13938479.643 9 -10847842.84446  23141857.417    23141856.1674   23141866.8564
 -20940721.600 9 -16306311.43448  21585185.865    21585184.5184   21585193.0964
  -5464276.983 9  -3996651.24146  23457575.829    23457574.8884   23457585.4324
  -3672531.255 9  -2856380.73745  25352782.084    25352781.0754   25352796.1414
 -21283539.154 9 -16141307.52249  20810458.211    20810456.6214   20810464.4314
 -21594187.077 9 -16595939.29548  20600731.684    20600731.1214   20600737.6044
 01  2 20  0 25 30.0000000  0  7G 6G17G 5G24G25G10G30
 -20181087.541 9 -15565357.37948  21192479.453    21192478.5324   21192486.1544
 -14008002.957 9 -10902016.72547  23128627.511    23128626.2254   23128636.7924
 -20858718.100 9 -16242412.67448  21600790.623    21600789.3154   21600797.9634
  -5384916.710 9  -3934812.11146  23472677.615    23472676.5944   23472687.2714
  -3658611.237 9  -2845533.97845  25355431.046    25355429.9714   25355445.0004
 -21268113.806 9 -16129287.75048  20813393.542    20813391.9694   20813399.7434
 -21564935.432 9 -16573145.82248  20606298.101    20606297.5374   20606303.9714
 01  2 20  0 26  0.0000000  0  7G 6G17G 5G24G25G10G30
 -20231806.360 9 -15604878.46648  21182827.955    21182827.0244   21182834.5864
 -14077313.466 9 -10956024.75747  23115438.024    23115436.8264   23115447.2674
 -20776360.171 9 -16178237.71048  21616462.827    21616461.5354   21616470.2124
  -5305552.365 9  -3872969.80346  23487780.208    23487779.2084   23487789.9414
  -3644295.484 9  -2834378.89745  25358155.231    25358154.2454   25358169.1284
 -21252073.065 9 -16116788.43548  20816445.983    20816444.4054   20816452.1354
 -21535108.444 9 -16549904.01248  20611973.973    20611973.4384   20611979.8384
 01  2 20  0 26 30.0000000  0  7G 6G17G 5G24G25G10G30
 -20282351.896 9 -15644264.53548  21173209.381    21173208.4634   21173216.0244
 -14146411.709 9 -11009867.39547  23102289.013    23102287.7694   23102298.1754
 -20693651.014 9 -16113789.07048  21632202.003    21632200.6794   21632209.3454
  -5226185.924 9  -3811125.86846  23502883.162    23502882.2434   23502892.8484
  -3629585.920 9  -2822916.96745  25360954.417    25360953.4874   25360968.1704
 -21235418.399 9 -16103810.75348  20819615.237    20819613.6514   20819621.3414
 -21504707.792 9 -16526215.20448  20617759.041    20617758.4934   20617764.9004
 01  2 20  0 27  0.0000000  0  7G 6G17G 5G24G25G10G30
 -20332722.382 9 -15683514.19348  21163624.149    21163623.2294   21163630.7964
 -14215297.284 9 -11063544.31147  23089180.474    23089179.2444   23089189.5684
 -20610592.683 9 -16049068.34447  21648007.531    21648006.2174   21648014.8324
  -5146818.281 9  -3749280.98446  23517986.444    23517985.4874   23517995.9854
  -3614483.450 9  -2811148.85745  25363828.312    25363827.2884   25363841.9844
 -21218150.383 9 -16090355.12548  20822901.202    20822899.6374   20822907.2874
 -21473734.079 9 -16502079.84148  20623653.094    20623652.5624   20623658.9974
 01  2 20  0 27 30.0000000  0  7G 6G17G 5G24G25G10G30
 -20382917.018 9 -15722626.84048  21154072.350    21154071.4414   21154078.9874
 -14283970.740 9 -11117055.95247  23076112.208    23076110.9814   23076121.2744
 -20527188.182 9 -15984077.88147  21663878.954    21663877.6794   21663886.2204
  -5067451.221 9  -3687436.58146  23533089.567    23533088.5424   23533098.9834
  -3598990.946 8  -2799076.83145  25366776.520    25366775.5064   25366789.9354
 -21200270.814 9 -16076422.97448  20826303.597    20826302.0314   20826309.6204
 -21442188.878 9 -16477499.17448  20629655.958    20629655.4074   20629661.8394
 01  2 20  0 28  0.0000000  0  7G 6G17G 5G24G25G10G30
 -20432931.690 9 -15761599.24648  21144554.818    21144553.9004   21144561.4444
 -14352429.080 9 -11170399.95247  23063084.927    23063083.6704   23063093.9904
 -20443437.168 9 -15918817.41047  21679816.416    21679815.1064   21679823.5484
  -4988082.316 9  -3625590.73246  23548192.860    23548191.8964   23548202.2914
  -3583106.306 8  -2786699.22445  25369799.421    25369798.4734   25369812.7714
 -21181777.490 9 -16062012.56548  20829822.773    20829821.1954   20829828.7464
 -21410070.745 9 -16452472.05848  20635767.812    20635767.2664   20635773.7494
 01  2 20  0 28 30.0000000  0  7G 6G17G 5G24G25G10G30
 -20482767.769 9 -15800432.48948  21135071.254    21135070.3354   21135077.8694
 -14420674.772 9 -11223578.26747  23050098.159    23050096.9104   23050107.2314
 -20359344.987 9 -15853291.10047  21695818.736    21695817.4184   21695825.7984
  -4908715.801 9  -3563746.74646  23563295.759    23563294.7414   23563305.2494
  -3566833.942 8  -2774019.51545  25372895.972    25372894.9704   25372909.4264
 -21162674.207 9 -16047126.86448  20833457.971    20833456.3784   20833463.9574
 -21377383.491 9 -16427001.47348  20641987.989    20641987.4694   20641993.9414
 01  2 20  0 29  0.0000000  0  7G 6G17G 5G24G25G10G30
 -20532421.280 9 -15839123.48548  21125622.508    21125621.5774   21125629.0524
 -14488705.457 9 -11276589.04347  23037152.301    23037151.0134   23037161.3264
 -20274911.758 9 -15787499.03947  21711885.897    21711884.5754   21711892.9084
  -4829350.823 9  -3501903.95946  23578398.268    23578397.2854   23578408.0154
  -3550172.967 8  -2761036.98845  25376066.369    25376065.3264   25376080.1764
 -21142959.640 9 -16031764.85148  20837209.465    20837207.8914   20837215.5054
 -21344125.646 9 -16401086.28548  20648316.813    20648316.2684   20648322.6854
 01  2 20  0 29 30.0000000  0  7G 6G17G 5G24G25G10G30
 -20581892.666 9 -15877672.55448  21116208.420    21116207.4744   21116214.9524
 -14556522.692 9 -11329433.47747  23024247.125    23024245.8174   23024256.0304
 -20190141.508 9 -15721444.35947  21728017.166    21728015.8574   21728024.1584
  -4749989.758 9  -3440064.20546  23593500.112    23593499.1904   23593510.0154
  -3533126.947 8  -2747754.41445  25379309.878    25379308.9314   25379324.0684
 -21122636.120 9 -16015928.31948  20841076.830    20841075.2544   20841082.8864
 -21310300.145 9 -16374728.75148  20654753.564    20654753.0224   20654759.4694
 01  2 20  0 30  0.0000000  0  7G 6G17G 5G24G25G10G30
 -20631180.159 9 -15916078.33948  21106829.278    21106828.3174   21106835.7744
 -14624126.178 9 -11382111.37447  23011382.622    23011381.3024   23011391.3194
 -20105036.354 9 -15655128.71347  21744212.127    21744210.8374   21744219.1434
  -4670633.166 9  -3378227.96446  23608601.200    23608600.3764   23608611.1764
  -3515697.272 8  -2734172.88845  25382626.502    25382625.6144   25382640.9104
 -21101704.916 9 -15999618.28148  20845059.837    20845058.2674   20845065.9154
 -21275907.834 9 -16347929.55748  20661298.185    20661297.6614   20661304.1084
 01  2 20  0 30 30.0000000  0  7G 6G17G 5G24G25G10G30
 -20680283.139 9 -15954340.34348  21097485.261    21097484.3164   21097491.7384
 -14691516.746 9 -11434623.35447  22998558.463    22998557.1604   22998567.1474
 -20019599.780 9 -15588554.81947  21760470.113    21760468.8514   21760477.2064
  -4591282.779 9  -3316396.54446  23623701.308    23623700.4224   23623711.1514
  -3497886.251 8  -2720294.23445  25386015.729    25386014.8874   25386030.2594
 -21080167.690 9 -15982836.00648  20849158.276    20849156.6894   20849164.2974
 -21240950.638 9 -16320690.19148  20667950.330    20667949.7964   20667956.2164
 01  2 20  0 31  0.0000000  0  7G 6G17G 5G24G25G10G30
 -20729198.391 9 -15992456.08048  21088176.923    21088175.9804   21088183.3724
 -14758692.346 9 -11486967.84147  22985775.235    22985773.9204   22985783.8374
 -19933832.503 9 -15521723.23647  21776791.056    21776789.7624   21776798.1974
  -4511937.979 9  -3254569.47346  23638800.304    23638799.2994   23638810.0444
  -3479693.433 9  -2706118.05945  25389477.586    25389476.7214   25389492.4074
 -21058023.688 9 -15965580.92248  20853372.172    20853370.5524   20853378.1024
 -21205428.157 9 -16293010.34248  20674709.990    20674709.4564   20674715.8984
 01  2 20  0 31 30.0000000  0  7G 6G17G 5G24G25G10G30
 -20777924.171 9 -16030424.17048  21078904.650    21078903.7194   21078911.0484
 -14825652.646 9 -11539144.56547  22973032.948    22973031.6424   22973041.5224
 -19847736.813 9 -15454635.74647  21793174.469    21793173.1614   21793181.6624
  -4432599.673 9  -3192747.47446  23653897.881    23653896.9284   23653907.5784
  -3461120.484 8  -2691645.66345  25393011.908    25393010.9744   25393026.7384
 -21035273.804 9 -15947853.72248  20857701.320    20857699.7054   20857707.1914
 -21169341.293 9 -16264890.71748  20681577.097    20681576.5624   20681583.0014
 01  2 20  0 32  0.0000000  0  7G 6G17G 5G24G25G10G30
 -20826460.668 9 -16068244.76248  21069668.446    21069667.5334   21069674.7324
 -14892399.022 9 -11591154.58847  22960331.305    22960330.0454   22960339.9774
 -19761316.718 9 -15387295.48947  21809619.540    21809618.2764   21809626.8484
  -4353270.113 9  -3130932.25846  23668993.902    23668992.9174   23669003.4984
  -3442170.316 8  -2676879.33445  25396617.994    25396617.1984   25396632.7654
 -21011920.510 9 -15929656.33948  20862145.290    20862143.6784   20862151.1414
 -21132692.902 9 -16236333.53648  20688551.043    20688550.5054   20688556.9724
 01  2 20  0 32 30.0000000  0  7G 6G17G 5G24G25G10G30
 -20874805.529 9 -16105916.02648  21060468.720    21060467.8024   21060474.9064
 -14958930.551 9 -11642997.20347  22947670.504    22947669.3004   22947679.2184
 -19674573.769 9 -15319703.64247  21826126.186    21826124.9384   21826133.4974
  -4273949.141 9  -3069123.75146  23684088.103    23684087.0884   23684097.7254
  -3422844.134 9  -2661820.00745  25400295.658    25400294.8714   25400310.6524
 -20987964.255 9 -15910989.10648  20866703.989    20866702.3734   20866709.8594
 -21095483.411 9 -16207339.13248  20695631.774    20695631.2534   20695637.6974
 01  2 20  0 33  0.0000000  0  7G 6G17G 5G24G25G10G30
 -20922956.499 9 -16143436.20648  21051305.862    21051304.9154   21051311.9614
 -15025246.364 9 -11694671.73247  22935050.896    22935049.6964   22935059.6314
 -19587509.777 9 -15251861.64047  21842693.931    21842692.6894   21842701.2624
  -4194637.271 9  -3007322.32746  23699180.497    23699179.6304   23699190.2944
  -3403142.428 9  -2646468.06745  25404044.756    25404043.9764   25404059.9744
 -20963405.385 9 -15891852.31148  20871377.322    20871375.7374   20871383.2334
 -21057713.214 9 -16177907.81948  20702819.260    20702818.7074   20702825.1164
 01  2 20  0 33 30.0000000  0  7G 6G17G 5G24G25G10G30
 -20970913.767 9 -16180805.44448  21042179.853    21042178.9234   21042185.9694
 -15091348.189 9 -11746179.50447  22922472.091    22922470.8244   22922480.6934
 -19500129.136 9 -15183772.89847  21859321.965    21859320.7374   21859329.2724
  -4115336.780 9  -2945529.77746  23714271.021    23714270.0934   23714280.6864
  -3383068.560 9  -2630826.14345  25407864.591    25407864.1014   25407879.8014
 -20938246.922 9 -15872248.29448  20876164.805    20876163.2334   20876170.7274
 -21019385.480 9 -16148042.05248  20710112.785    20710112.2184   20710118.6334
 01  2 20  0 34  0.0000000  0  7G 6G17G 5G24G25G10G30
 -21018676.045 9 -16218022.73948  21033090.951    21033089.9954   21033097.0924
 -15157235.950 9 -11797520.48047  22909933.898    22909932.6344   22909942.5554
 -19412434.190 9 -15115439.23747  21876009.879    21876008.6344   21876017.1754
  -4036049.015 9  -2883747.15546  23729359.068    23729358.2074   23729368.7104
  -3362624.424 9  -2614895.68645  25411755.103    25411754.5484   25411770.3254
 -20912489.795 9 -15852177.78648  20881066.196    20881064.6504   20881072.1394
 -20980501.562 9 -16117742.90148  20717512.146    20717511.6054   20717517.9684
 01  2 20  0 34 30.0000000  0  7G 6G17G 5G24G25G10G30
 -21066241.614 9 -16255086.76048  21024039.445    21024038.5214   21024045.6544
 -15222909.393 9 -11848694.46647  22897436.421    22897435.1764   22897445.1964
 -19324427.383 9 -15046862.57347  21892757.108    21892755.8704   21892764.3664
  -3956774.738 9  -2821975.02746  23744444.673    23744443.7044   23744454.1684
  -3341811.785 9  -2598678.07245  25415715.914    25415715.2864   25415730.5964
 -20886135.455 9 -15831641.91948  20886081.299    20886079.7384   20886087.1894
 -20941062.742 9 -16087011.36148  20725017.147    20725016.5904   20725022.9154
 01  2 20 22 52  0.0000000  0  7G30G 5G 9G10G 4G24G 6
 -23604068.038 9 -18375566.13648  21329775.256    21329774.7544   21329783.8094
 -29041836.538 9 -22077942.73849  20202648.921    20202647.7184   20202656.2654
  -8308857.891 9  -6454858.24245  24091225.888    24091224.9314   24091240.2844
 -16900023.128 9 -13150923.85247  22074853.446    22074851.9084   22074864.7244
  -6483264.314 9  -4341434.35246  23445221.174    23445220.5114   23445233.6344
 -18865335.495 9 -14682899.78948  21046768.452    21046767.5864   21046777.0974
  -8853718.448 9  -6743193.64346  23245467.155    23245466.2994   23245478.8434
 01  2 20 22 52 30.0000000  0  7G30G 5G 9G10G 4G24G 6
 -23669941.613 9 -18426896.12348  21317239.879    21317239.3624   21317248.3894
 -29046797.442 9 -22081808.37149  20201704.880    20201703.6624   20201712.2294
  -8215675.759 9  -6382248.99845  24108958.021    24108957.0964   24108972.5534
 -16981411.012 9 -13214342.81847  22059365.725    22059364.1904   22059377.0204
  -6385006.708 9  -4264870.15646  23463919.221    23463918.5974   23463931.6214
 -18811726.328 9 -14641126.44948  21056969.946    21056969.0944   21056978.6314
  -8919886.352 9  -6794752.89446  23232875.710    23232874.8364   23232887.3424
 01  2 20 22 53  0.0000000  0  7G30G 5G 9G10G 4G24G 6
 -23735423.854 9 -18477921.17448  21304778.960    21304778.4594   21304787.4594
 -29051234.953 9 -22085266.17349  20200860.446    20200859.2564   20200867.8254
  -8122489.696 9  -6309636.72845  24126691.021    24126690.1694   24126705.4564
 -17062446.275 9 -13277487.03947  22043945.157    22043943.5664   22043956.3394
  -6286686.571 9  -4188257.23746  23482628.988    23482628.3754   23482641.5124
 -18757796.139 9 -14599102.97548  21067232.532    21067231.6694   21067241.2474
  -8986013.471 9  -6846280.42446  23220291.950    23220291.0684   23220303.6484
 01  2 20 22 53 30.0000000  0  7G30G 5G 9G10G 4G24G 6
 -23800512.661 9 -18528639.64148  21292392.896    21292392.4144   21292401.3744
 -29055148.683 9 -22088315.81949  20200115.674    20200114.4824   20200123.0424
  -8029302.867 9  -6237023.83245  24144424.198    24144423.2734   24144438.6204
 -17143125.951 9 -13340354.16047  22028592.167    22028590.5854   22028603.3134
  -6188306.568 9  -4111597.66646  23501350.018    23501349.4944   23501362.8574
 -18703547.576 9 -14556831.39848  21077555.684    21077554.8524   21077564.4704
  -9052100.110 9  -6897776.36646  23207715.772    23207714.8644   23207727.5964
 01  2 20 22 54  0.0000000  0  7G30G 5G 9G10G 4G24G 6
 -23865205.502 9 -18579049.56748  21280082.176    21280081.7064   21280090.6284
 -29058537.734 9 -22090956.63149  20199470.795    20199469.5684   20199478.1544
  -7936117.866 9  -6164412.37846  24162156.925    24162156.0374   24162171.3684
 -17223446.599 9 -13402941.52447  22013307.467    22013305.9164   22013318.6404
  -6089868.325 9  -4034892.70346  23520082.136    23520081.6664   23520095.3114
 -18648982.267 9 -14514313.01048  21087939.139    21087938.2944   21087947.9394
  -9118145.770 9  -6949240.41046  23195147.372    23195146.5644   23195159.3664
 01  2 20 22 54 30.0000000  0  7G30G 5G 9G10G 4G24G 6
 -23929499.970 9 -18629149.07648  21267847.292    21267846.7964   21267855.7164
 -29061401.400 9 -22093188.06049  20198925.846    20198924.6164   20198933.1964
  -7842937.723 9  -6091804.68845  24179888.734    24179887.7514   24179903.2474
 -17303405.701 9 -13465247.16847  21998091.526    21998090.0404   21998102.7164
  -5991374.287 9  -3958144.27146  23538824.988    23538824.5504   23538838.3114
 -18594103.334 9 -14471550.24148  21098382.319    21098381.4544   21098391.0964
  -9184150.695 9  -7000672.69646  23182586.921    23182586.0604   23182598.8864
 01  2 20 22 55  0.0000000  0  7G30G 5G 9G10G 4G24G 6
 -23993394.155 9 -18678936.68548  21255688.612    21255688.1134   21255696.9614
 -29063739.118 9 -22095009.65549  20198480.996    20198479.7534   20198488.3424
  -7749765.020 9  -6019202.81046  24197619.020    24197618.0584   24197633.7964
 -17382999.964 9 -13527268.52547  21982945.117    21982943.6354   21982956.2454
  -5892826.288 9  -3881353.78846  23557578.217    23557577.7684   23557591.5554
 -18538912.811 9 -14428544.67248  21108884.778    21108883.9244   21108893.5224
  -9250114.822 9  -7052073.18846  23170034.282    23170033.4294   23170046.2464
 01  2 20 22 55 30.0000000  0  7G30G 5G 9G10G 4G24G 6
 -24056886.441 9 -18728411.13348  21243606.426    21243605.8984   21243614.7144
 -29065550.911 9 -22096421.45349  20198136.197    20198134.9824   20198143.5654
  -7656603.351 9  -5946609.52546  24215347.292    24215346.2944   24215362.2464
 -17462227.301 9 -13589003.96647  21967868.579    21967867.1024   21967879.6114
  -5794227.205 9  -3804523.52546  23576341.163    23576340.7884   23576354.5014
 -18483413.681 9 -14385298.64048  21119445.983    21119445.1124   21119454.6664
  -9316038.794 9  -7103442.40746  23157489.436    23157488.5344   23157501.2174
 01  2 20 22 56  0.0000000  0  7G30G 5G 9G10G 4G24G 6
 -24119974.165 9 -18777570.31648  21231601.126    21231600.6194   21231609.4494
 -29066835.994 9 -22097422.80249  20197891.644    20197890.3924   20197898.9814
  -7563455.393 9  -5874026.91746  24233073.071    24233072.0924   24233088.0514
 -17541084.565 9 -13650451.02147  21952862.486    21952861.0004   21952873.4484
  -5695579.226 9  -3727655.11646  23595113.645    23595113.2624   23595126.6694
 -18427607.891 9 -14341813.62648  21130065.523    21130064.6314   21130074.1654
  -9381922.388 9  -7154780.13946  23144952.228    23144951.3144   23144963.8854
 01  2 20 22 56 30.0000000  0  7G30G 5G 9G10G 4G24G 6
 -24182655.350 9 -18826412.73148  21219673.251    21219672.7364   21219681.5894
 -29067594.113 9 -22098013.54649  20197747.304    20197746.0714   20197754.7064
  -7470324.217 8  -5801457.40145  24250795.482    24250794.5244   24250810.5524
 -17619568.959 9 -13711607.54547  21937927.274    21937925.8204   21937938.2114
  -5596884.356 9  -3650750.20446  23613894.984    23613894.5214   23613907.6254
 -18371498.223 9 -14298091.83648  21140742.879    21140741.9594   21140751.5174
  -9447765.920 9  -7206086.65647  23132422.509    23132421.6384   23132434.1964
 01  2 20 22 57  0.0000000  0  7G30G 5G 9G10G 4G24G 6
 -24244925.602 9 -18874934.94648  21207823.573    21207823.0504   21207831.9454
 -29067822.464 9 -22098191.48649  20197703.842    20197702.6314   20197711.2424
  -7377210.593 8  -5728901.56545  24268514.374    24268513.3984   24268529.6264
 -17697675.165 9 -13772469.38947  21923064.079    21923062.6404   21923074.9304
  -5498142.704 9  -3573808.81546  23632685.028    23632684.5534   23632697.5134
 -18315084.889 9 -14254133.42948  21151478.030    21151477.0974   21151486.6564
  -9513567.088 9  -7257360.17547  23119900.980    23119900.0474   23119912.5604
 01  2 20 22 57 30.0000000  0  7G30G 5G 9G10G 4G24G 6
 -24306784.585 9 -18923136.68348  21196052.105    21196051.6094   21196060.5274
 -29067522.306 9 -22097957.59649  20197761.000    20197759.7824   20197768.3704
  -7284119.162 8  -5656363.02045  24286229.097    24286228.1844   24286244.5514
 -17775402.345 9 -13833035.87547  21908273.067    21908271.5604   21908283.7544
  -5399358.032 9  -3496833.91146  23651483.108    23651482.6494   23651495.6674
 -18258371.453 9 -14209941.16748  21162270.239    21162269.3264   21162278.8684
  -9579327.569 9  -7308601.97647  23107387.103    23107386.1804   23107398.6374
 01  2 20 22 58  0.0000000  0  7G30G 5G 9G10G 4G24G 6
 -24368226.938 9 -18971013.79048  21184360.020    21184359.5034   21184368.4274
 -29066690.203 9 -22097309.21849  20197919.402    20197918.1824   20197926.7254
  -7191049.836 8  -5583841.71345  24303939.857    24303938.9734   24303955.2834
 -17852744.593 9 -13893302.42347  21893555.306    21893553.7384   21893565.8794
  -5300529.698 9  -3419824.97846  23670289.583    23670289.1304   23670302.3094
 -18201357.696 9 -14165514.89748  21173119.690    21173118.7654   21173128.2694
  -9645044.389 9  -7359809.76647  23094881.425    23094880.5674   23094893.0574
 01  2 20 22 58 30.0000000  0  7G30G 5G 9G10G 4G24G 6
 -24429253.852 9 -19018567.17548  21172746.927    21172746.4234   21172755.3294
 -29065328.925 9 -22096248.49449  20198178.491    20198177.2534   20198185.7344
  -7098008.708 9  -5511342.38045  24321645.255    24321644.4154   24321660.6004
 -17929702.140 9 -13953269.21247  21878910.696    21878909.1474   21878921.2124
  -5201662.673 9  -3342785.88746  23689103.451    23689102.9054   23689116.2894
 -18144048.670 9 -14120858.54548  21184025.282    21184024.3454   21184033.8534
  -9710720.645 9  -7410985.95346  23082383.401    23082382.6004   23082395.1074
 01  2 20 22 59  0.0000000  0  7G30G 5G 9G10G 4G24G 6
 -24489861.227 9 -19065793.63748  21161213.698    21161213.1674   21161222.0704
 -29063435.964 9 -22094773.45749  20198538.715    20198537.4844   20198545.9674
  -7004996.717 9  -5438865.74045  24339345.040    24339344.2024   24339360.1364
 -18006270.293 9 -14012932.56747  21864340.088    21864338.5844   21864350.6484
  -5102757.272 9  -3265716.89446  23707924.683    23707924.0664   23707937.5824
 -18086445.552 9 -14075973.02048  21194986.796    21194985.8874   21194995.4424
  -9776354.295 9  -7462128.91546  23069893.500    23069892.7564   23069905.2514
 01  2 20 22 59 30.0000000  0  7G30G 5G 9G10G 4G24G 6
 -24550046.983 9 -19112691.57648  21149760.601    21149760.1064   21149769.0154
 -29061011.297 9 -22092884.11149  20199000.098    20198998.8644   20199007.3894
  -6912016.957 8  -5366414.23645  24357038.666    24357037.8634   24357053.6374
 -18082446.531 9 -14072290.54047  21849844.047    21849842.5794   21849854.5984
  -5003815.948 9  -3188619.90446  23726752.547    23726752.1214   23726765.7914
 -18028550.876 9 -14030860.31548  21206003.748    21206002.8304   21206012.4674
  -9841945.862 9  -7513239.08846  23057411.663    23057410.8974   23057423.4674
 01  2 20 23  0  0.0000000  0  7G30G 5G 9G10G 4G24G 6
 -24609808.561 9 -19159258.98348  21138388.266    21138387.7794   21138396.7124
 -29058053.880 9 -22090579.63949  20199562.861    20199561.6354   20199570.1704
  -6819071.521 9  -5293989.46345  24374725.971    24374725.0694   24374740.7454
 -18158227.405 9 -14131340.44247  21835423.295    21835421.8524   21835433.8174
  -4904839.976 9  -3111495.90846  23745587.053    23745586.6334   23745600.5624
 -17970365.979 9 -13985521.46748  21217075.967    21217075.0554   21217084.7494
  -9907494.524 9  -7564315.83546  23044937.972    23044937.2324   23044949.7504
 01  2 20 23  0 30.0000000  0  7G30G 5G 9G10G 4G24G 6
 -24669145.354 9 -19205495.37848  21127096.749    21127096.2564   21127105.2074
 -29054564.848 9 -22087860.90949  20200226.799    20200225.5654   20200234.1014
  -6726164.673 9  -5221594.74245  24392405.715    24392404.8594   24392420.6694
 -18233611.407 9 -14190081.08447  21821078.123    21821076.6134   21821088.5224
  -4805833.088 9  -3034347.83146  23764427.537    23764427.0994   23764441.1244
 -17911895.381 9 -13939959.98948  21228202.530    21228201.6424   21228211.3974
  -9973001.819 9  -7615360.32146  23032472.368    23032471.4724   23032483.9464
 01  2 20 23  1  0.0000000  0  7G30G 5G 9G10G 4G24G 6
 -24728052.686 9 -19251397.12648  21115887.006    21115886.5064   21115895.5174
 -29050541.365 9 -22084725.72049  20200992.451    20200991.2154   20200999.7564
  -6633296.878 9  -5149230.46845  24410078.307    24410077.4244   24410093.1004
 -18308593.398 9 -14248508.46347  21806809.456    21806807.9414   21806819.7874
  -4706794.817 9  -2957175.29146  23783274.045    23783273.5924   23783287.6914
 -17853138.644 9 -13894175.54048  21239383.551    21239382.6914   21239392.4524
 -10038465.108 9  -7666370.52646  23020015.035    23020014.1654   23020026.5614
 01  2 20 23  1 30.0000000  0  7G30G 5G 9G10G 4G24G 6
 -24786530.705 9 -19296964.34848  21104758.936    21104758.4204   21104767.4644
 -29045985.551 9 -22081175.73249  20201859.385    20201858.1454   20201866.6974
  -6540473.568 9  -5076900.84245  24427742.271    24427741.3164   24427757.0454
 -18383172.902 9 -14306622.22747  21792617.390    21792615.8564   21792627.6314
  -4607729.547 9  -2879981.72146  23802125.707    23802125.2114   23802139.2584
 -17794100.224 9 -13848171.60748  21250618.217    21250617.3644   21250627.1014
 -10103886.841 9  -7717348.35146  23007565.713    23007564.7744   23007577.1354
 01  2 20 23  2  0.0000000  0  7G30G 5G 9G10G 4G24G 6
 -24844575.854 9 -19342194.26948  21093713.220    21093712.7374   21093721.7944
 -29040895.630 9 -22077209.56049  20202827.922    20202826.7044   20202835.2954
  -6447696.040 9  -5004606.91645  24445397.358    24445396.4044   24445412.2454
 -18457345.810 9 -14364419.15447  21778502.648    21778501.1184   21778512.8944
  -4508637.939 9  -2802767.64846  23820982.430    23820981.9174   23820995.9354
 -17734780.909 9 -13801948.79748  21261906.368    21261905.4894   21261915.2044
 -10169265.532 9  -7768292.62747  22995124.417    22995123.4384   22995135.9604
 01  2 20 23  2 30.0000000  0  7G30G 5G 9G10G 4G24G 6
 -24902184.827 9 -19387084.32848  21082750.604    21082750.0964   21082759.1374
 -29035270.076 9 -22072826.02049  20203898.396    20203897.1734   20203905.7764
  -6354965.778 9  -4932349.81745  24463043.386    24463042.3684   24463058.5964
 -18531108.027 9 -14421896.09147  21764466.029    21764464.5054   21764476.2864
  -4409520.696 9  -2725533.58146  23839843.924    23839843.4294   23839857.4414
 -17675182.099 9 -13755508.21348  21273247.736    21273246.8384   21273256.5054
 -10234599.823 9  -7819202.33347  22982691.546    22982690.6444   22982703.1264
 01  2 20 23  3  0.0000000  0  7G30G 5G 9G10G 4G24G 6
 -24959356.308 9 -19431633.47948  21071871.173    21071870.6684   21071879.7074
 -29029109.139 9 -22068025.29349  20205070.774    20205069.5714   20205078.1464
  -6262286.287 9  -4860132.26545  24480679.677    24480678.7394   24480695.2474
 -18604457.436 9 -14479051.34247  21750507.921    21750506.4384   21750518.2404
  -4310380.488 9  -2648281.62746  23858709.750    23858709.2104   23858723.3844
 -17615307.378 9 -13708852.62748  21284641.571    21284640.6804   21284650.3064
 -10299890.338 9  -7870077.91647  22970267.167    22970266.2464   22970278.6504
 01  2 20 23  3 30.0000000  0  7G30G 5G 9G10G 4G24G 6
 -25016087.796 9 -19475839.75948  21061075.478    21061074.9614   21061083.9944
 -29022412.179 9 -22062806.87849  20206345.221    20206344.0094   20206352.5194
  -6169659.952 9  -4787956.14545  24498305.780    24498304.8864   24498321.7084
 -18677390.692 9 -14535882.30147  21736629.040    21736627.5564   21736639.3794
  -4211219.192 9  -2571013.24346  23877579.512    23877579.0264   23877593.3254
 -17555157.911 9 -13661982.94448  21296087.651    21296086.7564   21296096.3664
 -10365136.723 9  -7920919.10047  22957851.098    22957850.1614   22957862.5644
 01  2 20 23  4  0.0000000  0  7G30G 5G 9G10G 4G24G 6
 -25072376.837 9 -19519701.29048  21050364.006    21050363.5074   21050372.5064
 -29015178.685 9 -22057170.39249  20207721.715    20207720.4964   20207728.9594
  -6077089.110 8  -4715823.26045  24515921.543    24515920.6614   24515937.5884
 -18749904.812 9 -14592386.68247  21722829.949    21722828.4594   21722840.2694
  -4112038.283 9  -2493729.56446  23896453.003    23896452.4904   23896466.9514
 -17494736.238 9 -13614901.16348  21307585.549    21307584.6564   21307594.2874
 -10430338.295 9  -7971725.37847  22945443.619    22945442.7104   22945454.9844
 01  2 20 23  4 30.0000000  0  7G30G 5G 9G10G 4G24G 6
 -25128222.396 9 -19563217.24048  21039736.854    21039736.3644   21039745.3814
 -29007409.546 9 -22051116.51649  20209200.202    20209198.9734   20209207.3914
  -5984577.639 9  -4643736.66845  24533525.979    24533525.0734   24533542.1314
 -18821998.066 9 -14648563.10247  21709111.017    21709109.5074   21709121.2824
  -4012840.604 9  -2416432.83246  23915329.813    23915329.2514   23915343.8034
 -17434045.479 9 -13567609.70148  21319134.719    21319133.7814   21319143.4214
 -10495496.125 9  -8022497.57147  22933044.369    22933043.4554   22933055.7264
 01  2 20 23  5  0.0000000  0  7G30G 5G 9G10G 4G24G 6
 -25183621.516 9 -19606385.32148  21029194.702    21029194.2124   21029203.1964
 -28999103.626 9 -22044644.37049  20210780.795    20210779.5384   20210787.9214
  -5892127.515 8  -4571697.85245  24551118.597    24551117.6054   24551134.9704
 -18893667.089 9 -14704408.96547  21695472.819    21695471.2884   21695482.9844
  -3913627.573 9  -2339124.13246  23934209.590    23934208.9824   23934223.4584
 -17373087.156 9 -13520109.73948  21330734.687    21330733.7704   21330743.4564
 -10560609.236 9  -8073234.90847  22920653.617    22920652.7524   22920664.9564
 01  2 20 23  5 30.0000000  0  7G30G 5G 9G10G 4G24G 6
 -25238571.560 9 -19649203.47548  21018738.007    21018737.5014   21018746.4464
 -28990260.280 9 -22037753.45749  20212463.613    20212462.3644   20212470.7644
  -5799740.929 9  -4499708.52545  24568699.157    24568698.1444   24568715.8144
 -18964908.400 9 -14759921.54347  21681915.954    21681914.4034   21681926.0354
  -3814400.601 9  -2261804.57346  23953092.178    23953091.5494   23953105.9824
 -17311863.348 9 -13472402.92148  21342385.185    21342384.3054   21342394.0274
 -10625676.984 9  -8123936.90847  22908271.541    22908270.6544   22908282.8424
 01  2 20 23  6  0.0000000  0  7G30G 5G 9G10G 4G24G 6
 -25293071.856 9 -19691671.16748  21008366.910    21008366.4014   21008375.3134
 -28980880.415 9 -22030444.46749  20214248.502    20214247.2484   20214255.6684
  -5707421.847 9  -4427771.83245  24586266.991    24586266.1224   24586283.6214
 -19035720.475 9 -14815099.64647  21668440.703    21668439.1524   21668450.7834
  -3715162.519 9  -2184476.35146  23971976.848    23971976.1464   23971990.5364
 -17250377.103 9 -13424491.59248  21354085.604    21354084.7054   21354094.5014
 -10690700.363 9  -8174604.33847  22895897.839    22895896.9514   22895909.1044
 01  2 20 23  6 30.0000000  0  8G17G30G 5G 9G10G 4G24G 6
   -313690.333 8   -229185.55344  25514071.5004
 -25347118.407 9 -19733785.31248  20998082.197    20998081.7014   20998090.5514
 -28970962.470 9 -22022716.20749  20216135.795    20216134.5614   20216143.0134
  -5615171.561 9  -4355888.73545  24603822.095    24603821.0394   24603838.5134
 -19106099.323 9 -14869940.18047  21655047.891    21655046.3534   21655057.9984
  -3615914.001 9  -2107140.00946  23990863.423    23990862.7914   23990877.0824
 -17188629.339 9 -13376376.49148  21365835.802    21365834.9304   21365844.7454
 -10755677.794 9  -8225235.97647  22883532.943    22883532.0814   22883544.1124
 01  2 20 23  7  0.0000000  0  8G17G30G 5G 9G10G 4G24G 6
   -408745.409 8   -303254.06945  25495964.904    25495959.8844   25495982.9364
 -25400710.444 9 -19775545.27148  20987883.955    20987883.4214   20987892.2334
 -28960507.316 9 -22014569.33449  20218125.326    20218124.0944   20218132.5794
  -5522993.884 9  -4284062.22345  24621363.134    24621362.1454   24621379.5714
 -19176043.183 9 -14924441.74947  21641737.887    21641736.3284   21641748.0284
  -3516657.714 8  -2029797.60645  24009751.425    24009750.7554   24009764.9604
 -17126623.622 9 -13328060.38748  21377635.108    21377634.2524   21377644.0634
 -10820610.110 9  -8275832.45147  22871176.653    22871175.7454   22871187.7494
 01  2 20 23  7 30.0000000  0  8G17G30G 5G 9G10G 4G24G 6
   -503694.703 8   -377240.14645  25477895.578    25477892.8924   25477912.7824
 -25453844.263 9 -19816948.18148  20977772.862    20977772.3404   20977781.1544
 -28949512.924 9 -22006002.28349  20220217.496    20220216.2664   20220224.7534
  -5430889.690 9  -4212292.96345  24638890.274    24638889.2814   24638906.7084
 -19245547.527 9 -14978600.84547  21628511.475    21628509.9344   21628521.6534
  -3417393.796 8  -1952449.24845  24028640.865    24028640.2584   24028654.4024
 -17064360.218 9 -13279543.49448  21389483.463    21389482.5994   21389492.4044
 -10885495.452 9  -8326392.34147  22858829.183    22858828.3534   22858840.3034
 01  2 20 23  8  0.0000000  0  8G17G30G 5G 9G10G 4G24G 6
   -598538.075 8   -451143.68145  25459846.548    25459843.6484   25459865.4984
 -25506518.758 9 -19857993.17748  20967749.214    20967748.7004   20967757.5124
 -28937980.446 9 -21997015.94049  20222412.036    20222410.8264   20222419.3044
  -5338862.657 9  -4140583.83745  24656402.592    24656401.6384   24656419.1134
 -19314610.761 9 -15032416.22547  21615368.962    21615367.4834   21615379.1984
  -3318125.641 8  -1875097.59445  24047530.886    24047530.2514   24047544.5824
 -17001842.935 9 -13230828.77248  21401380.068    21401379.1944   21401389.0364
 -10950334.708 9  -8376916.32047  22846490.650    22846489.8344   22846501.6844
 01  2 20 23  8 30.0000000  0  8G17G30G 5G 9G10G 4G24G 6
   -693273.329 8   -524962.96145  25441818.565    25441816.1874   25441838.3304
 -25558731.109 9 -19898678.04748  20957813.472    20957812.9484   20957821.7724
 -28925908.775 9 -21987609.43549  20224709.244    20224708.0064   20224716.4774
  -5246914.648 9  -4068936.25745  24673899.933    24673899.0144   24673916.5524
 -19383228.975 9 -15085884.81547  21602311.278    21602309.7824   21602321.4784
  -3218853.711 8  -1797742.99345  24066421.546    24066421.0444   24066435.6284
 -16939072.858 9 -13181917.05348  21413324.830    21413323.9544   21413333.8344
 -11015126.584 9  -8427403.35647  22834161.157    22834160.2804   22834172.1024
 01  2 20 23  9  0.0000000  0  8G17G30G 5G 9G10G 4G24G 6
   -787900.777 8   -598698.25945  25423811.618    25423809.7824   25423831.2934
 -25610480.544 9 -19939002.22148  20947965.819    20947965.3154   20947974.0864
 -28913299.180 9 -21977783.78849  20227108.762    20227107.5354   20227116.0294
  -5155049.695 9  -3997353.42545  24691381.540    24691380.4834   24691398.2244
 -19451401.014 9 -15139005.75547  21589338.448    21589336.9334   21589348.6604
  -3119581.307 8  -1720388.02145  24085312.237    24085311.8264   24085326.6444
 -16876053.536 9 -13132811.13648  21425317.026    21425316.1324   21425326.0444
 -11079872.308 9  -8477854.46347  22821840.392    22821839.5494   22821851.2834
 01  2 20 23  9 30.0000000  0  8G17G30G 5G 9G10G 4G24G 6
   -882418.356 8   -672347.92445  25405825.415    25405823.7254   25405845.0844
 -25661763.915 9 -19978963.22548  20938206.912    20938206.4014   20938215.0754
 -28900150.717 9 -21967538.23749  20229610.885    20229609.6634   20229618.1214
  -5063269.345 9  -3925836.48945  24708846.886    24708845.7924   24708863.7174
 -19519123.302 9 -15191776.22847  21576451.201    21576449.6954   21576461.3974
  -3020309.171 8  -1643033.24845  24104203.012    24104202.6574   24104217.6484
 -16812786.120 9 -13083511.88948  21437356.433    21437355.5284   21437365.4254
 -11144570.854 9  -8528268.80647  22809528.721    22809527.8424   22809539.5064
 01  2 20 23 10  0.0000000  0  8G17G30G 5G 9G10G 4G24G 6
   -976822.448 8   -745909.17145  25387860.571    25387858.9614   25387880.3714
 -25712576.672 9 -20018557.50548  20928537.505    20928537.0254   20928545.6324
 -28886460.690 9 -21956870.67949  20232216.057    20232214.8094   20232223.2694
  -4971573.804 9  -3854385.63545  24726295.935    24726294.9924   24726313.1364
 -19586390.760 9 -15244192.27947  21563650.473    21563648.9874   21563660.6414
  -2921036.690 8  -1565678.20145  24123094.067    24123093.6004   24123108.6304
 -16749270.620 9 -13034019.31848  21449443.016    21449442.1104   21449452.0074
 -11209219.321 9  -8578644.10747  22797226.430    22797225.5494   22797237.2474
 01  2 20 23 10 30.0000000  0  8G17G30G 5G 9G10G 4G24G 6
  -1071116.099 8   -819384.34045  25369916.360    25369914.9744   25369936.3664
 -25762921.034 9 -20057786.82148  20918957.285    20918956.7684   20918965.3294
 -28872233.269 9 -21945784.38449  20234923.476    20234922.2454   20234930.6664
  -4879969.770 9  -3783006.09545  24743727.731    24743726.8354   24743745.1484
 -19653204.723 9 -15296254.97848  21550936.116    21550934.6394   21550946.2224
  -2821769.635 8  -1488327.39045  24141984.301    24141983.7514   24141998.6694
 -16685513.250 9 -12984338.29748  21461575.646    21461574.7814   21461584.6294
 -11273821.694 9  -8628983.51447  22784932.941    22784932.0604   22784943.7884
 01  2 20 23 11  0.0000000  0  9G17G30G 5G 9G10G25G 4G24G 6
  -1165297.082 8   -892771.73345  25351993.951    25351992.8114   25352014.1814
 -25812793.948 9 -20096648.77548  20909466.691    20909466.2084   20909474.7604
 -28857467.473 9 -21934278.57849  20237733.361    20237732.0904   20237740.4864
  -4788458.808 8  -3711699.07645  24761141.805    24761140.9094   24761159.4434
 -19719561.512 9 -15347961.42548  21538308.713    21538307.2504   21538318.8024
   -264236.203 8   -198936.72952
  -2722508.971 8  -1410981.56645  24160873.279    24160872.8054   24160887.5594
 -16621515.177 9 -12934469.70748  21473754.135    21473753.2404   21473763.0644
 -11338376.454 9  -8679285.81247  22772648.420    22772647.5654   22772659.3214
 01  2 20 23 11 30.0000000  0  8G17G30G 5G 9G10G 4G24G 6
  -1259362.981 8   -966069.45445  25334093.642    25334092.5424   25334114.0804
 -25862191.596 9 -20135140.37048  20900066.550    20900066.0554   20900074.6114
 -28842161.806 9 -21922352.08049  20240645.894    20240644.6534   20240653.0424
  -4697042.130 9  -3640465.52345  24778537.823    24778536.8464   24778555.6494
 -19785456.966 9 -15399308.37948  21525769.136    21525767.6614   21525779.2004
  -2623254.740 8  -1333640.73245  24179761.021    24179760.5704   24179775.1474
 -16557277.080 9 -12884414.07648  21485978.294    21485977.3874   21485987.2244
 -11402881.880 9  -8729549.64347  22760373.267    22760372.4334   22760384.2394
 01  2 20 23 12  0.0000000  0  8G17G30G 5G 9G10G 4G24G 6
  -1353313.228 8  -1039277.04445  25316215.300    25316214.1714   25316235.6194
 -25911112.661 9 -20173260.62148  20890757.117    20890756.6504   20890765.1674
 -28826316.681 9 -21910005.24049  20243661.149    20243659.8864   20243668.2614
  -4605722.728 8  -3569307.77345  24795915.564    24795914.6044   24795933.2454
 -19850889.225 9 -15450294.42548  21513317.702    21513316.2214   21513327.6884
  -2524009.206 8  -1256306.69145  24198647.112    24198646.6354   24198661.0914
 -16492801.580 9 -12834173.46848  21498247.540    21498246.6644   21498256.5784
 -11467338.227 9  -8779775.26347  22748107.563    22748106.7244   22748118.4734
 01  2 20 23 12 30.0000000  0  9G17G30G 5G 9G10G25G 4G24G 6
  -1447146.427 8  -1112393.43845  25298358.973    25298357.8824   25298379.2494
 -25959554.997 9 -20211007.84048  20881538.788    20881538.3024   20881546.8004
 -28809931.913 9 -21897237.90249  20246779.038    20246777.7974   20246786.2074
  -4514502.968 9  -3498227.67245  24813274.110    24813273.1584   24813292.0334
 -19915855.204 9 -15500917.13648  21500955.055    21500953.5404   21500964.9324
   -231022.031 8   -175605.50652
  -2424773.968 8  -1178980.66345  24217531.135    24217530.5724   24217545.0314
 -16428091.255 9 -12783749.89048  21510561.518    21510560.6094   21510570.6074
 -11531745.012 9  -8829962.24347  22735851.247    22735850.3884   22735862.0684
 01  2 20 23 13  0.0000000  0  9G17G30G 5G 9G10G25G 4G24G 6
  -1540862.637 8  -1185418.64745  25280524.771    25280523.6894   25280545.0474
 -26007517.767 9 -20248381.36448  20872411.769    20872411.2904   20872419.7414
 -28793008.661 9 -21884050.96249  20249999.383    20249998.1484   20250006.5604
  -4423386.577 9  -3427228.10745  24830613.196    24830612.2144   24830631.0004
 -19980353.501 9 -15551175.41848  21488681.392    21488679.8674   21488691.2124
   -276767.873 8   -211246.23752
  -2325551.868 8  -1101664.87945  24236412.799    24236412.1514   24236426.6844
 -16363149.038 9 -12733145.60648  21522919.590    21522918.7044   21522928.7724
 -11596103.281 9  -8880111.41347  22723604.234    22723603.3574   22723614.9454
 01  2 20 23 13 30.0000000  0  8G17G30G 5G 9G10G 4G24G 6
  -1634459.107 8  -1258350.57345  25262713.708    25262712.5874   25262734.0814
 -26054997.374 9 -20285378.40548  20863376.702    20863376.2154   20863384.5984
 -28775545.286 9 -21870443.14449  20253322.561    20253321.3074   20253329.7664
  -4332374.343 9  -3356309.68645  24847932.604    24847931.6644   24847950.4944
 -20044379.920 9 -15601066.00548  21476497.500    21476495.9624   21476507.3014
  -2226342.953 8  -1024359.35245  24255291.765    24255291.0924   24255305.5064
 -16297975.787 9 -12682361.29848  21535321.633    21535320.7884   21535330.9354
 -11660411.035 9  -8930221.21847  22711366.768    22711365.8694   22711377.3994
 01  2 20 23 14  0.0000000  0  8G17G30G 5G 9G10G 4G24G 6
  -1727935.657 8  -1331189.07745  25244925.553    25244924.5734   25244945.7454
 -26101992.677 9 -20321998.06849  20854433.769    20854433.2864   20854441.6474
 -28757542.773 9 -21856415.22449  20256748.349    20256747.1064   20256755.5684
  -4241469.914 9  -3285475.27145  24865231.544    24865230.4584   24865249.2494
 -20107932.886 9 -15650587.67248  21464403.660    21464402.1544   21464413.4934
  -2127149.780 8   -947066.09145  24274167.510    24274166.9244   24274181.7804
 -16232574.561 9 -12631399.34448  21547767.060    21547766.2124   21547776.4234
 -11724668.792 9  -8980292.07947  22699138.804    22699137.9944   22699149.3964
 01  2 20 23 14 30.0000000  0  9G17G30G 5G 9G10G25G 4G24G 6
  -1821289.851 8  -1403932.20845  25227160.695    25227159.3224   25227180.8914
 -26148500.725 9 -20358238.06649  20845583.584    20845583.0834   20845591.4374
 -28739000.030 9 -21841966.35749  20260276.978    20260275.7434   20260284.1914
  -4150674.209 9  -3214725.58145  24882509.780    24882508.7674   24882527.3744
 -20171008.453 9 -15699737.36348  21452400.664    21452399.1434   21452410.4784
   -233352.959 8   -173591.92152
  -2027972.668 9   -869785.35845  24293040.291    24293039.7384   24293054.7914
 -16166945.882 9 -12580260.16948  21560255.846    21560254.9864   21560265.1904
 -11788874.850 9  -9030322.66447  22686920.706    22686919.8824   22686931.2324
 01  2 20 23 15  0.0000000  0  8G17G30G 5G 9G10G 4G24G 6
  -1914522.097 8  -1476580.31645  25209418.880    25209417.4544   25209438.9814
 -26194520.765 9 -20394097.77649  20836826.201    20836825.7064   20836834.0624
 -28719918.539 9 -21827097.66349  20263908.073    20263906.8294   20263915.2864
  -4059991.678 9  -3144064.06745  24899766.560    24899765.6404   24899783.7084
 -20233605.428 9 -15748514.10048  21440488.765    21440487.2404   21440498.5604
  -1928814.895 8   -792519.67545  24311909.417    24311908.6674   24311923.9154
 -16101093.569 9 -12528946.71548  21572787.202    21572786.3314   21572796.4964
 -11853030.375 9  -9080313.83747  22674712.157    22674711.3644   22674722.7144
 01  2 20 23 15 30.0000000  0  9G17G30G 5G 9G10G25G 4G24G 6
  -2007628.790 8  -1549130.60745  25191700.933    25191699.4514   25191720.6204
 -26240048.410 9 -20429573.81849  20828162.557    20828162.0644   20828170.3954
 -28700295.979 9 -21811807.37249  20267642.185    20267640.9344   20267649.3854
  -3969422.237 9  -3073490.67445  24917001.563    24917000.6794   24917018.6524
 -20295718.948 9 -15796914.13548  21428668.883    21428667.3524   21428678.6324
   -321072.703 8   -241945.15552
  -1829675.590 8   -715268.38745  24330774.897    24330774.2254   24330789.5794
 -16035017.201 9 -12477458.68448  21585361.204    21585360.3264   21585370.4134
 -11917132.504 9  -9130263.41047  22662513.890    22662513.0494   22662524.3464
 01  2 20 23 16  0.0000000  0  9G17G30G 5G 9G10G25G 4G24G 6
  -2100611.536 8  -1621584.30645  25174006.763    25174005.4784   25174026.2584
 -26285084.271 9 -20464666.65249  20819592.496    20819591.9964   20819600.3344
 -28680135.337 9 -21796097.79349  20271478.644    20271477.3884   20271485.8584
  -3878970.857 9  -3003009.26645  24934214.021    24934213.1934   24934231.1644
 -20357349.277 9 -15844937.66448  21416940.987    21416939.4214   21416950.6394
   -364299.65518   -275628.48245  25707147.1134
  -1730559.014 8   -638034.79145  24349636.219    24349635.5784   24349651.0664
 -15968721.764 9 -12425799.94748  21597976.828    21597975.9524   21597986.0084
 -11981183.609 9  -9180173.23247  22650325.280    22650324.4074   22650335.7014
 01  2 20 23 16 30.0000000  0  9G17G30G 5G 9G10G25G 4G24G 6
  -2193468.292 8  -1693939.82545  25156336.575    25156335.3724   25156355.7174
 -26329625.560 9 -20499374.10949  20811116.563    20811116.0444   20811124.3704
 -28659435.785 9 -21779968.28649  20275417.591    20275416.3714   20275424.8354
  -3788639.180 8  -2932621.11645  24951403.772    24951402.9344   24951421.0654
 -20418492.880 9 -15892581.92748  21405305.739    21405304.1464   21405315.2664
   -407103.247 8   -308981.89045  25698986.271    25698985.3334   25699002.0684
  -1631465.724 8   -560819.36845  24368493.032    24368492.4134   24368507.9214
 -15902208.659 9 -12373971.60548  21610633.905    21610633.0204   21610643.0434
 -12045182.096 9  -9230042.06447  22638146.649    22638145.8184   22638157.1074
 01  2 20 23 17  0.0000000  0  9G17G30G 5G 9G10G25G 4G24G 6
  -2286197.421 8  -1766195.88245  25138690.519    25138689.2194   25138709.5064
 -26373670.121 9 -20533694.49249  20802735.095    20802734.5974   20802742.9184
 -28638197.129 9 -21763418.68949  20279459.178    20279457.9234   20279466.4524
  -3698429.214 8  -2862327.81745  24968570.159    24968569.4474   24968587.8334
 -20479146.819 9 -15939844.62548  21393763.599    21393762.0074   21393773.0774
   -449482.166 8   -342004.43045  25690921.802    25690920.7564   25690937.2294
  -1532396.801 8   -483622.90345  24387345.266    24387344.7424   24387360.0834
 -15835479.575 9 -12321974.95548  21623332.055    21623331.1694   21623341.1684
 -12109127.287 9  -9279869.33947  22625978.145    22625977.2924   22625988.6074
 01  2 20 23 17 30.0000000  0  9G17G30G 5G 9G10G25G 4G24G 6
  -2378798.209 8  -1838351.94445  25121068.906    25121067.3074   25121088.1284
 -26417216.260 9 -20567626.49649  20794448.499    20794448.0134   20794456.2894
 -28616419.644 9 -21746449.22949  20283603.286    20283602.0354   20283610.6064
  -3608343.492 8  -2792131.32345  24985713.039    24985712.3904   24985730.5794
 -20539308.759 9 -15986723.94748  21382315.043    21382313.4634   21382324.5434
   -491435.789 8   -374695.54845  25682938.329    25682938.0424   25682954.2694
  -1433354.330 8   -406447.05945  24406192.581    24406192.0354   24406207.4654
 -15768536.420 9 -12269811.49148  21636070.919    21636070.0404   21636080.0624
 -12173019.048 9  -9329655.00647  22613819.817    22613818.9994   22613830.3024
 01  2 20 23 18  0.0000000  0  9G17G30G 5G 9G10G25G 4G24G 6
  -2471275.635 8  -1910411.88745  25103470.717    25103469.5014   25103489.8224
 -26460267.948 9 -20601173.21649  20786255.969    20786255.4754   20786263.7814
 -28594109.851 9 -21729064.98649  20287848.659    20287847.4254   20287856.0014
  -3518390.715 8  -2722038.41645  25002830.495    25002830.0214   25002847.9654
 -20598982.312 9 -16033222.71748  21370959.433    21370957.8844   21370968.9614
   -532969.166 8   -407059.21045  25675034.630    25675034.2544   25675050.5354
  -1334345.850 8   -329297.70845  24425033.315    24425032.7414   24425048.1804
 -15701387.791 9 -12217487.91948  21648848.897    21648848.0344   21648858.0444
 -12236863.156 9  -9379403.52347  22601670.618    22601669.7904   22601681.0734
 01  2 20 23 18 30.0000000  0  9G17G30G 5G 9G10G25G 4G24G 6
  -2563620.615 8  -1982368.60445  25085897.732    25085896.5264   25085916.6874
 -26502815.238 9 -20634326.90249  20778159.467    20778158.9904   20778167.3034
 -28571259.799 9 -21711259.76649  20292196.865    20292195.6254   20292204.2674
  -3428565.183 8  -2652044.69245  25019923.853    25019923.4274   25019941.3114
 -20658157.253 9 -16079332.96448  21359698.724    21359697.1804   21359708.2214
   -574072.939 8   -439088.15745  25667212.876    25667212.4394   25667228.9484
  -1235364.880 8   -252169.78545  24443868.938    24443868.2924   24443883.8404
 -15634027.751 9 -12164999.61648  21661667.091    21661666.2404   21661676.2644
 -12300650.981 9  -9429108.19747  22589532.173    22589531.2834   22589542.5564
 01  2 20 23 19  0.0000000  0  9G17G30G 5G 9G10G25G 4G24G 6
  -2655830.661 8  -2054220.19945  25068350.648    25068349.3044   25068369.4514
 -26544854.793 9 -20667084.94949  20770159.616    20770159.1084   20770167.4384
 -28547868.225 9 -21693032.58349  20296648.172    20296646.9544   20296655.5514
  -3338867.929 8  -2582150.91045  25036993.072    25036992.5604   25037010.0874
 -20716829.183 9 -16125051.24848  21348533.745    21348532.2194   21348543.2394
   -614745.145 8   -470780.80245  25659473.348    25659472.7564   25659489.3034
  -1136411.271 8   -175063.18345  24462699.388    24462698.9264   24462714.1884
 -15566457.236 9 -12112347.30448  21674525.354    21674524.4894   21674534.5154
 -12364380.662 9  -9478767.56847  22577404.704    22577403.8394   22577415.0594
 01  2 20 23 19 30.0000000  0  9G17G30G 5G 9G10G25G 4G24G 6
  -2747908.415 8  -2125968.71545  25050828.603    25050827.3044   25050847.0944
 -26586388.731 9 -20699449.00549  20762255.912    20762255.4104   20762263.7484
 -28523939.383 9 -21674386.74249  20301201.743    20301200.4914   20301209.0834
  -3249305.308 8  -2512362.06145  25054036.748    25054036.0414   25054053.2204
 -20774999.613 9 -16170378.75148  21337464.245    21337462.7024   21337473.6834
   -654989.125 8   -502139.76445  25651815.292    25651814.7694   25651831.5664
  -1037490.757 8    -97982.36545  24481523.439    24481522.8044   24481538.2574
 -15498681.333 9 -12059534.94348  21687422.730    21687421.8504   21687431.9094
 -12428055.729 9  -9528384.36847  22565287.608    22565286.7874   22565298.0184
 01  2 20 23 20  0.0000000  0  9G17G30G 5G 9G10G25G 4G24G 6
  -2839851.638 8  -2197612.37345  25033331.928    25033330.6684   25033350.4804
 -26627413.986 9 -20731416.67749  20754448.997    20754448.5044   20754456.8574
 -28499472.137 9 -21655321.35949  20305857.715    20305856.4684   20305865.0654
  -3159878.153 8  -2442678.75945  25071054.290    25071053.6704   25071070.5864
 -20832664.817 9 -16215312.57348  21326490.878    21326489.3094   21326500.2594
   -694802.309 8   -533163.06445  25644238.883    25644238.4534   25644255.3354
   -938603.323 9    -20927.31545  24500341.229    24500340.5574   24500355.8484
 -15430701.595 9 -12006563.74848  21700358.882    21700358.0044   21700368.0794
 -12491674.195 9  -9577957.06747  22553181.329    22553180.5284   22553191.6864
 01  2 20 23 20 30.0000000  0  9G17G30G 5G 9G10G25G 4G24G 6
  -2931659.823 8  -2269150.80645  25015861.050    25015859.8114   25015879.5594
 -26667929.131 9 -20762986.86849  20746739.128    20746738.6624   20746747.0204
 -28474467.378 9 -21635837.14449  20310616.010    20310614.7644   20310623.3134
  -3070589.473 8  -2373103.38845  25088045.412    25088045.2174   25088061.9524
 -20889822.945 9 -16259851.27348  21315613.995    21315612.4294   21315623.3364
   -734183.814 8   -563849.97745  25636745.073    25636744.6814   25636761.5634
   -839750.959 8     56100.40245  24519152.187    24519151.3754   24519166.9954
 -15362520.231 9 -11953435.44848  21713333.442    21713332.5434   21713342.6314
 -12555236.054 9  -9627485.66047  22541085.844    22541085.0424   22541096.1034
 01  2 20 23 21  0.0000000  0  9G17G30G 5G 9G10G25G 4G24G 6
  -3023331.734 8  -2340583.05945  24998416.150    24998414.9084   24998434.2454
 -26707932.275 9 -20794158.10049  20739126.780    20739126.3024   20739134.5904
 -28448925.194 9 -21615934.15549  20315476.578    20315475.3294   20315483.8604
  -2981441.572 8  -2303637.68945  25105009.835    25105009.7144   25105026.3234
 -20946471.918 9 -16303993.23548  21304833.991    21304832.4524   21304843.3014
   -773132.983 8   -594199.95145  25629333.421    25629333.0424   25629349.3984
   -740935.082 8    133099.69345  24537956.007    24537955.2384   24537971.3194
 -15294139.213 9 -11900151.56748  21726346.018    21726345.0744   21726355.1864
 -12618740.984 9  -9676969.89447  22529001.227    22529000.3784   22529011.4004
 01  2 20 23 21 30.0000000  0  9G17G30G 5G 9G10G25G 4G24G 6
  -3114866.593 9  -2411908.52045  24980997.449    24980996.1284   24981015.4464
 -26747422.106 9 -20824929.34749  20731612.060    20731611.5944   20731619.8014
 -28422846.547 9 -21595613.14149  20320439.181    20320437.9534   20320446.4614
  -2892437.350 8  -2234283.91545  25121946.949    25121946.5694   25121963.6454
 -21002609.526 9 -16347736.72348  21294151.300    21294149.7574   21294160.5694
   -811649.780 8   -624213.04645  25622003.927    25622003.5864   25622019.8704
   -642157.588 8    210069.08945  24556752.519    24556751.7474   24556768.0274
 -15225561.371 9 -11846714.32148  21739395.923    21739395.0104   21739405.1274
 -12682188.956 9  -9726409.74647  22516927.450    22516926.5674   22516937.4924
 01  2 20 23 22  0.0000000  0  9G17G30G 5G 9G10G25G 4G24G 6
  -3206263.183 9  -2483126.23145  24963604.981    24963603.5384   24963623.1284
 -26786396.427 9 -20855298.90249  20724195.477    20724194.9984   20724203.1644
 -28396231.774 9 -21574874.37049  20325503.823    20325502.5574   20325511.0924
  -2803578.811 8  -2165043.68145  25138856.529    25138855.8424   25138873.4394
 -21058233.115 9 -16391079.67748  21283566.454    21283564.9254   21283575.6704
   -849733.043 8   -653888.35345  25614757.135    25614756.5334   25614772.9764
   -543419.828 8    287007.51445  24575541.726    24575541.1264   24575557.3334
 -15156788.344 9 -11793124.98948  21752483.006    21752482.1104   21752492.2204
 -12745579.152 9  -9775804.57847  22504864.537    22504863.6774   22504874.5544
 01  2 20 23 22 30.0000000  0  9G17G30G 5G 9G10G25G 4G24G 6
  -3297521.465 9  -2554236.17245  24946238.686    24946237.3804   24946256.7864
 -26824854.479 9 -20885266.17249  20716877.110    20716876.6254   20716884.7844
 -28369082.109 9 -21553718.80849  20330670.195    20330668.9514   20330677.4904
  -2714869.081 8  -2095919.41245  25155737.666    25155736.6364   25155754.4744
 -21113341.299 9 -16434021.03248  21273079.676    21273078.1254   21273088.8144
   -887382.627 8   -683225.72045  25607592.682    25607591.8034   25607608.5634
   -444723.958 8    363913.27345  24594323.272    24594322.6644   24594338.4794
 -15087822.927 9 -11739385.74848  21765606.772    21765605.8544   21765615.8874
 -12808912.025 9  -9825154.74247  22492812.622    22492811.7414   22492822.6184
 01  2 20 23 23  0.0000000  0  9G17G30G 5G 9G10G25G 4G24G 6
  -3388639.544 9  -2625236.86845  24928899.206    24928897.9534   24928917.1944
 -26862793.548 9 -20914829.03549  20709657.463    20709656.9834   20709665.1354
 -28341396.852 9 -21532145.89649  20335938.567    20335937.3044   20335945.8434
  -2626310.007 8  -2026912.50845  25172590.174    25172589.0194   25172607.0074
 -21167930.755 9 -16476558.17048  21262691.580    21262690.0564   21262700.6924
   -924597.042 8   -712223.95445  25600511.361    25600510.3754   25600527.0844
   -346070.688 8    440785.85345  24613096.625    24613096.1674   24613111.7344
 -15018666.333 9 -11685497.52848  21778766.917    21778766.0044   21778775.9864
 -12872186.159 9  -9874459.13347  22480771.854    22480771.0164   22480781.9124
 01  2 20 23 23 30.0000000  0  9G17G30G 5G 9G10G25G 4G24G 6
  -3479611.215 9  -2696123.48145  24911587.640    24911586.4984   24911605.3434
 -26900206.717 9 -20943982.09549  20702537.922    20702537.4624   20702545.6364
 -28313171.343 9 -21510151.99749  20341309.704    20341308.4454   20341316.9874
  -2537898.495 8  -1958020.62545  25189414.422    25189413.2924   25189431.5194
 -21221994.212 9 -16518685.42748  21252403.614    21252402.0984   21252412.6504
   -961370.203 8   -740878.38245  25593514.039    25593512.8094   25593529.3204
   -247456.014 9    517628.36345  24631862.840    24631862.3464   24631877.7284
 -14949315.637 9 -11631458.05248  21791963.948    21791963.0384   21791973.0384
 -12935395.854 9  -9923713.32347  22468743.424    22468742.5534   22468753.4024
 01  2 20 23 24  0.0000000  0  9G17G30G 5G 9G10G25G 4G24G 6
  -3570439.270 9  -2766898.19945  24894303.456    24894302.2744   24894320.9294
 -26937096.077 9 -20972726.99649  20695518.056    20695517.5814   20695525.7734
 -28284409.756 9 -21487740.38349  20346782.829    20346781.5864   20346790.1204
  -2449640.887 8  -1889248.62445  25206209.228    25206207.9564   25206226.7114
 -21275533.172 9 -16560403.99048  21242215.429    21242213.9024   21242224.4054
   -997705.054 8   -769191.28345  25586599.918    25586598.4474   25586615.2114
   -148885.399 8    594436.54445  24650620.550    24650619.9314   24650635.0794
 -14879776.571 9 -11577271.80048  21805196.855    21805195.9474   21805205.9554
 -12998544.418 9  -9972919.86447  22456726.640    22456725.7224   22456736.5764
 01  2 20 23 24 30.0000000  0  9G17G30G 5G 9G10G25G 4G24G 6
  -3661127.349 9  -2837563.87445  24877045.680    24877044.4514   24877063.3164
 -26973464.642 9 -21001066.08549  20688597.312    20688596.8324   20688605.0244
 -28255117.169 9 -21464914.99649  20352357.063    20352355.7974   20352364.3584
  -2361543.791 8  -1820601.72745  25222973.662    25222972.5984   25222991.5894
 -21328549.995 9 -16601715.69548  21232126.493    21232124.9964   21232135.5084
  -1033605.706 8   -797165.81645  25579768.420    25579766.8564   25579783.7144
    -50364.783 8    671205.77845  24669368.291    24669367.5524   24669382.9084
 -14810056.013 9 -11522944.12848  21818464.322    21818463.4224   21818473.4734
 -13061635.913 9 -10022081.94347  22444720.664    22444719.7344   22444730.5614
 01  2 20 23 25  0.0000000  0  9G17G30G 5G 9G10G25G 4G24G 6
  -3751672.518 9  -2908118.17145  24859815.324    24859814.0004   24859832.6054
 -27009308.648 9 -21028996.44249  20681776.425    20681775.9244   20681784.0944
 -28225292.150 9 -21441674.74549  20358032.572    20358031.3284   20358039.8914
  -2273607.794 8  -1752080.33045  25239707.469    25239706.3954   25239725.2424
 -21381040.278 9 -16642617.12648  21222137.789    21222136.2814   21222146.8254
  -1069069.452 8   -824799.88445  25573019.743    25573018.0504   25573035.2824
     48106.382 8    747936.46745  24688106.563    24688106.0604   24688121.4584
 -14740153.648 9 -11468474.80148  21831766.371    21831765.4334   21831775.5184
 -13124667.788 9 -10071197.59247  22432725.940    22432725.0684   22432735.8204
 01  2 20 23 25 30.0000000  0  9G17G30G 5G 9G10G25G 4G24G 6
  -3842074.353 8  -2978560.80845  24842612.233    24842610.8694   24842629.4744
 -27044627.084 9 -21056517.26249  20675055.555    20675055.0774   20675063.1604
 -28194936.012 9 -21418020.63049  20363809.173    20363807.9094   20363816.5054
  -2185835.675 8  -1683686.70945  25256409.845    25256408.7424   25256427.5754
 -21433002.730 9 -16683107.25548  21212249.482    21212248.0074   21212258.6424
  -1104096.178 8   -852093.43345  25566354.212    25566351.8834   25566370.1674
    146526.044 8    824627.01545  24706835.306    24706834.7444   24706850.2344
 -14670072.257 9 -11413865.97348  21845102.439    21845101.4914   21845111.6294
 -13187640.149 9 -10120266.84447  22420742.547    22420741.7144   22420752.4724
 01  2 20 23 26  0.0000000  0  9G17G30G 5G 9G10G25G 4G24G 6
  -3932329.345 8  -3048889.01645  24825436.847    24825435.5994   24825454.1884
 -27079415.856 9 -21083625.34449  20668435.495    20668434.9804   20668443.0454
 -28164046.924 9 -21393951.22049  20369687.129    20369685.9004   20369694.5274
  -2098226.984 8  -1615420.35945  25273081.294    25273080.4784   25273098.9054
 -21484432.641 9 -16723182.40648  21202462.579    21202461.1024   21202471.7854
  -1138682.332 8   -879043.69445  25559772.471    25559770.0714   25559788.6014
    244895.413 8    901278.41445  24725554.346    24725553.9554   24725569.5614
 -14599811.618 9 -11359117.45548  21858472.580    21858471.6554   21858481.8394
 -13250550.015 9 -10169287.40247  22408771.102    22408770.2914   22408780.9774
 01  2 20 23 26 30.0000000  0  8G17G30G 5G10G25G 4G24G 6
  -4022437.979 8  -3119103.22745  24808289.247    24808288.0024   24808306.6294
 -27113674.924 9 -21110320.66749  20661916.185    20661915.6834   20661923.7374
 -28132626.983 9 -21369468.15949  20375666.170    20375664.9314   20375673.5964
 -21535329.604 9 -16762842.27648  21192777.146    21192775.6674   21192786.3314
  -1172829.361 8   -905651.82045  25553274.282    25553271.8284   25553290.6664
    343211.412 8    977888.23045  24744263.307    24744262.9234   24744278.5784
 -14529375.196 9 -11304231.96548  21871876.204    21871875.2864   21871885.4714
 -13313398.216 9 -10218259.89747  22396811.444    22396810.5914   22396821.1914
 01  2 20 23 27  0.0000000  0  8G17G30G 5G10G25G 4G24G 6
  -4112398.471 8  -3189202.02045  24791169.916    24791168.6134   24791187.3224
 -27147401.556 9 -21136601.10749  20655498.215    20655497.7264   20655505.7174
 -28100675.875 9 -21344571.20549  20381746.285    20381745.0514   20381753.7274
 -21585690.394 9 -16802084.34848  21183193.740    21183192.2714   21183202.9104
  -1206535.587 8   -931916.43445  25546860.406    25546857.9584   25546876.4964
    441473.785 8   1054456.24845  24762962.275    24762961.7474   24762977.7094
 -14458764.047 9 -11249210.32748  21885313.115    21885312.1834   21885322.3354
 -13376183.450 9 -10267183.33547  22384863.744    22384862.8724   22384873.3554
 01  2 20 23 27 30.0000000  0  8G17G30G 5G10G25G 4G24G 6
  -4202210.531 8  -3259185.12445  24774078.679    24774077.5244   24774096.0934
 -27180594.938 9 -21162466.02749  20649181.720    20649181.2194   20649189.2044
 -28068194.810 9 -21319261.30049  20387927.259    20387926.0134   20387934.6974
 -21635513.501 9 -16840907.45148  21173712.723    21173711.2154   21173721.7884
  -1239800.782 8   -957837.37745  25540530.122    25540527.8414   25540546.6214
    539680.358 8   1130980.76645  24781650.778    24781650.1504   24781665.7704
 -14387980.904 9 -11194054.66648  21898782.739    21898781.8094   21898791.9464
 -13438905.719 9 -10316057.71047  22372928.024    22372927.1254   22372937.5304
 01  2 20 23 28  0.0000000  0  8G17G30G 5G10G25G 4G24G 6
  -4291871.793 8  -3329050.74545  24757016.212    24757015.1364   24757033.7954
 -27213252.274 9 -21187913.25849  20642967.187    20642966.7014   20642974.6854
 -28035182.977 9 -21293537.81749  20394209.229    20394207.9834   20394216.6344
 -21684795.696 9 -16879309.07448  21164334.571    21164333.0374   21164343.5654
  -1272623.546 8   -983413.59845  25534284.262    25534282.1344   25534300.8084
    637831.086 8   1207461.77545  24800328.311    24800327.6294   24800343.0394
 -14317026.558 9 -11138765.61148  21912284.860    21912283.9814   21912294.1384
 -13501563.166 9 -10364881.58647  22361004.602    22361003.6894   22361014.0644
 01  2 20 23 28 30.0000000  0  8G17G30G 5G10G25G 4G24G 6
  -4381381.549 8  -3398798.31645  24739982.769    24739981.6584   24740000.4834
 -27245372.209 9 -21212941.72549  20636854.957    20636854.4534   20636862.4184
 -28001641.505 9 -21267401.61749  20400591.984    20400590.7354   20400599.3964
 -21733534.975 9 -16917287.63648  21155059.721    21155058.1984   21155068.6874
  -1305003.192 8  -1008644.48545  25528122.699    25528120.4004   25528139.3264
    735924.601 8   1283898.19945  24818994.891    24818994.3474   24819009.6394
 -14245902.983 9 -11083344.67248  21925819.252    21925818.3624   21925828.5354
 -13564155.549 9 -10413654.75547  22349093.499    22349092.6154   22349103.0654
 01  2 20 23 29  0.0000000  0  8G17G30G 5G10G25G 4G24G 6
  -4470739.703 8  -3468427.75445  24722978.258    24722977.1904   24722995.8254
 -27276953.799 9 -21237550.71449  20630845.180    20630844.6744   20630852.6314
 -27967571.522 9 -21240853.60749  20407075.334    20407074.0864   20407082.7184
 -21781729.977 9 -16954842.09848  21145888.419    21145886.8974   21145897.3744
  -1336939.868 8  -1033530.19245  25522045.091    25522042.9994   25522061.8874
    833958.654 8   1360288.30545  24837650.572    24837649.5754   24837664.8824
 -14174612.795 9 -11027793.92748  21939385.305    21939384.4304   21939394.6254
 -13626682.952 9 -10462377.30247  22337194.805    22337193.9434   22337204.4674
 01  2 20 23 29 30.0000000  0  8G17G30G 5G10G25G 4G24G 6
  -4559945.807 8  -3537938.72645  24706002.600    24706001.4724   24706020.1194
 -27307996.308 9 -21261739.63049  20624937.941    20624937.4434   20624945.3794
 -27932974.352 9 -21213894.78449  20413658.941    20413657.6794   20413666.3534
 -21829379.082 9 -16991971.17048  21136820.963    21136819.4754   21136829.9354
  -1368433.739 8  -1058070.87745  25516051.764    25516049.9674   25516069.0584
    931931.556 8   1436630.75745  24856293.820    24856292.8364   24856308.4104
 -14103158.562 9 -10972115.33748  21952982.640    21952981.7474   21952991.9724
 -13689145.357 9 -10511049.18647  22325308.518    22325307.6814   22325318.1924
 01  2 20 23 30  0.0000000  0  8G17G30G 5G10G25G 4G24G 6
  -4648997.772 9  -3607329.58645  24689056.243    24689055.1934   24689073.8374
 -27338496.849 9 -21285506.25149  20619133.883    20619133.3714   20619141.2744
 -27897849.626 9 -21186524.89349  20420342.896    20420341.6524   20420350.3824
 -21876479.451 9 -17028672.67048  21127857.976    21127856.4804   21127866.9164
  -1399482.785 8  -1082264.99145  25510142.979    25510141.2384   25510160.5084
   1029842.929 8   1512925.29345  24874925.349    24874924.7774   24874940.4754
 -14031541.423 9 -10916309.81448  21966611.021    21966610.1024   21966620.3224
 -13751540.975 9 -10559669.05347  22313434.947    22313434.1114   22313444.6174
 01  2 20 23 30 30.0000000  0  8G17G30G 5G10G25G 4G24G 6
  -4737895.514 9  -3676600.27745  24672139.386    24672138.3144   24672156.8314
 -27368454.797 9 -21308850.07049  20613433.020    20613432.5084   20613440.4214
 -27862199.049 9 -21158745.24649  20427126.989    20427125.7354   20427134.4834
 -21923030.154 9 -17064945.85748  21118999.591    21118998.0924   21119008.5034
  -1430087.407 8  -1106112.75545  25504319.371    25504317.7584   25504336.0144
   1127690.894 8   1589170.40445  24893545.078    24893545.0274   24893560.4764
 -13959764.082 9 -10860379.46548  21980269.802    21980268.9264   21980279.1524
 -13813870.128 9 -10608237.11547  22301574.011    22301573.1524   22301583.6564
 01  2 20 23 31  0.0000000  0  8G17G30G 5G10G25G 4G24G 6
  -4826637.784 9  -3745749.79945  24655252.286    24655251.1454   24655269.3874
 -27397868.554 9 -21331769.83549  20607835.706    20607835.2034   20607843.1154
 -27826022.988 9 -21130556.11749  20434011.017    20434009.7704   20434018.5364
 -21969028.730 9 -17100788.80248  21110246.294    21110244.7824   21110255.1424
  -1460246.944 8  -1129613.73845  25498580.394    25498578.7214   25498596.7214
   1225474.249 8   1665365.15045  24912152.708    24912152.2974   24912168.1214
 -13887828.241 9 -10804325.60148  21993958.772    21993957.8704   21993968.1474
 -13876131.749 9 -10656752.55748  22289725.928    22289725.0754   22289735.5574
 01  2 20 23 31 30.0000000  0  8G17G30G 5G10G25G 4G24G 6
  -4915223.860 9  -3814777.62045  24638395.025    24638393.8154   24638411.6894
 -27426736.779 9 -21354264.52749  20602342.158    20602341.6664   20602349.6054
 -27789322.343 9 -21101958.24549  20440994.931    20440993.7044   20441002.4664
 -22014473.181 9 -17136199.97748  21101598.488    21101596.9484   21101607.2504
  -1489961.223 8  -1152767.74245  25492926.093    25492924.5354   25492942.2794
   1323191.646 8   1741508.54345  24930747.695    24930747.0634   24930763.3514
 -13815735.896 9 -10748149.80248  22007677.504    22007676.5824   22007686.9054
 -13938325.371 9 -10705215.03048  22277890.806    22277889.9484   22277900.3914
 01  2 20 23 32  0.0000000  0  8G17G30G 5G10G25G 4G24G 6
  -5003652.961 9  -3883683.12745  24621567.422    24621566.1754   24621583.8374
 -27455057.900 9 -21376332.89049  20596952.723    20596952.2674   20596960.2344
 -27752097.903 9 -21072952.20749  20448078.533    20448077.2914   20448086.0174
 -22059361.581 9 -17171177.85648  21093056.451    21093054.9024   21093065.1574
  -1519229.613 8  -1175574.25645  25487356.699    25487354.8624   25487372.6814
   1420841.994 8   1817599.67345  24949329.903    24949329.6074   24949345.7214
 -13743489.095 9 -10691853.63648  22021425.647    22021424.7254   22021435.0454
 -14000450.341 9 -10753623.98748  22266068.794    22266067.9124   22266078.2964
 01  2 20 23 32 30.0000000  0  8G17G30G 5G10G25G 4G24G 6
  -5091923.508 9  -3952465.08445  24604769.920    24604768.7334   24604786.2544
 -27482829.992 9 -21397973.44449  20591667.832    20591667.3554   20591675.3164
 -27714350.015 9 -21043538.28449  20455261.718    20455260.5084   20455269.2164
 -22103691.411 9 -17205720.48248  21084620.652    21084619.1324   21084629.3544
  -1548050.740 8  -1198032.31845  25481871.920    25481870.4484   25481888.2714
   1518424.603 8   1893638.02745  24967899.265    24967898.5854   24967915.1984
 -13671089.227 9 -10635438.19248  22035202.879    22035202.0074   22035212.3204
 -14062505.353 9 -10801978.44048  22254260.136    22254259.2074   22254269.4814
 01  2 20 23 33  0.0000000  0  8G17G30G 5G10G25G 4G24G 6
  -5180033.511 9  -4021121.96245  24588003.050    24588001.8314   24588019.1864
 -27510050.666 9 -21419184.32649  20586487.873    20586487.3824   20586495.3554
 -27676078.554 9 -21013716.38749  20462544.596    20462543.3664   20462552.0604
 -22147460.174 9 -17239825.91848  21076291.655    21076290.1184   21076300.3064
  -1576423.758 8  -1220141.16545  25476472.566    25476471.4254   25476489.0564
   1615939.095 8   1969623.32345  24986455.621    24986455.0264   24986471.2614
 -13598537.193 9 -10578904.18847  22049009.073    22049008.2294   22049018.5424
 -14124488.988 9 -10850277.26948  22242464.973    22242464.0524   22242474.2514
 01  2 20 23 33 30.0000000  0  8G17G30G 5G10G25G 4G24G 6
  -5267983.694 9  -4089654.30545  24571266.514    24571265.3174   24571282.6474
 -27536720.203 9 -21439965.74249  20581412.749    20581412.2754   20581420.2634
 -27637286.045 9 -20983488.47349  20469926.574    20469925.3464   20469934.0434
 -22190667.394 9 -17273493.78348  21068069.512    21068067.9904   21068078.1004
  -1604349.902 8  -1241901.77745  25471158.495    25471157.0864   25471174.6494
   1713382.846 8   2045553.49445  25004998.512    25004997.8114   25005014.4294
 -13525836.183 9 -10522254.09447  22062843.634    22062842.7724   22062853.1074
 -14186402.192 9 -10898521.21848  22230683.205    22230682.2794   22230692.4334
 01  2 20 23 34  0.0000000  0  8G17G30G 5G10G25G 4G24G 6
  -5355772.320 9  -4158060.76645  24554560.774    24554559.6934   24554576.7324
 -27562836.177 9 -21460315.81549  20576443.002    20576442.5554   20576450.5174
 -27597972.489 9 -20952854.55149  20477407.715    20477406.4764   20477415.1714
 -22233310.324 9 -17306721.94848  21059954.764    21059953.2284   21059963.3374
  -1631827.546 8  -1263312.94945  25465929.442    25465928.0754   25465945.9834
   1810755.350 8   2121428.15445  25023527.978    25023527.4524   25023543.8564
 -13452987.461 9 -10465488.90647  22076706.349    22076705.5054   22076715.8064
 -14248243.395 9 -10946709.05548  22218915.143    22218914.2164   22218924.3874
 01  2 20 23 34 30.0000000  0  8G17G30G 5G10G25G 4G24G 6
  -5443399.714 9  -4226341.59545  24537885.806    24537884.5464   24537901.5544
 -27588398.394 9 -21480234.39249  20571578.709    20571578.2534   20571586.1604
 -27558139.817 9 -20921816.12649  20484987.640    20484986.3994   20484995.1034
 -22275388.687 9 -17339510.19448  21051947.388    21051945.8614   21051955.9654
  -1658857.586 8  -1284375.34345  25460785.788    25460784.5754   25460802.3954
   1908054.294 8   2197245.48145  25042043.836    25042043.0044   25042059.1434
 -13379994.388 9 -10408611.23047  22090596.515    22090595.6394   22090605.9144
 -14310013.143 9 -10994841.21748  22207160.648    22207159.7344   22207169.9554
 01  2 20 23 35  0.0000000  0  8G17G30G 5G10G25G 4G24G 6
  -5530863.634 9  -4294495.04745  24521242.016    24521240.6694   24521257.3894
 -27613404.569 9 -21499719.68849  20566820.198    20566819.7174   20566827.5964
 -27517787.668 9 -20890372.91649  20492666.459    20492665.2134   20492673.8944
 -22316899.317 9 -17371856.05148  21044048.139    21044046.6004   21044056.6884
  -1685438.433 8  -1305087.70945  25455727.497    25455726.6274   25455743.6954
   2005279.783 8   2273005.58045  25060545.403    25060544.5864   25060560.5104
 -13306857.593 9 -10351621.56547  22104513.964    22104513.1244   22104523.4224
 -14371709.477 9 -11042916.17148  22195420.109    22195419.1814   22195429.4594
 01  2 20 23 35 30.0000000  0  8G17G30G 5G10G25G 4G24G 6
  -5618162.789 8  -4362520.10445  24504629.326    24504628.2204   24504644.8494
 -27637852.889 9 -21518770.29849  20562167.847    20562167.3584   20562175.2104
 -27476916.734 9 -20858525.46149  20500444.024    20500442.7494   20500451.4404
 -22357839.591 9 -17403757.48348  21036257.350    21036255.8234   21036265.9214
  -1711569.413 8  -1325449.48845  25450755.414    25450754.4794   25450771.3234
   2102430.920 8   2348707.75445  25079033.013    25079032.1074   25079047.8674
 -13233578.372 9 -10294520.92147  22118458.512    22118457.6704   22118468.0344
 -14433331.317 9 -11090933.09448  22183693.715    22183692.8394   22183703.1294
 01  2 20 23 36  0.0000000  0  8G17G30G 5G10G25G 4G24G 6
  -5705297.241 8  -4430416.82745  24488047.822    24488046.7004   24488063.5024
 -27661743.087 9 -21537386.00349  20557621.669    20557621.2054   20557629.0004
 -27435528.701 9 -20826275.06749  20508319.905    20508318.6364   20508327.3934
 -22398208.764 9 -17435213.89748  21028575.287    21028573.7714   21028583.8674
  -1737250.718 8  -1345460.91445  25445868.575    25445867.4534   25445884.4924
   2199505.793 8   2424350.51845  25097505.940    25097505.3184   25097520.7024
 -13160159.661 9 -10237311.57747  22132429.644    22132428.7984   22132439.2324
 -14494878.764 9 -11138892.04548  22171981.545    22171980.6774   22171990.9034
 01  2 20 23 36 30.0000000  0  8G17G30G 5G10G25G 4G24G 6
  -5792265.950 8  -4498184.39045  24471497.936    24471496.6864   24471513.6864
 -27685073.444 9 -21555565.46149  20553182.040    20553181.5794   20553189.3594
 -27393624.707 9 -20793622.61949  20516293.945    20516292.6864   20516301.5004
 -22438005.280 9 -17466224.08148  21021002.196    21021000.6644   21021010.7364
  -1762482.658 8  -1365122.16045  25441067.055    25441066.2864   25441082.8084
   2296503.345 8   2499933.03945  25115963.803    25115963.1224   25115978.8794
 -13086602.299 9 -10179994.18847  22146427.226    22146426.3584   22146436.8674
 -14556350.875 9 -11186792.27848  22160283.703    22160282.8564   22160293.0064
 01  2 20 23 37  0.0000000  0  8G17G30G 5G10G25G 4G24G 6
  -5879068.538 9  -4565822.49345  24454979.959    24454978.6714   24454995.4584
 -27707842.948 9 -21573307.89449  20548849.111    20548848.6384   20548856.4274
 -27351205.704 9 -20760568.86649  20524365.989    20524364.7384   20524373.5924
 -22477227.468 9 -17496786.74248  21013538.377    21013536.8614   21013546.9434
  -1787264.340 8  -1384432.54645  25436351.165    25436350.2314   25436367.3554
   2393422.333 7   2575454.32845  25134406.301    25134405.7424   25134422.2294
 -13012909.104 9 -10122570.96847  22160450.625    22160449.7204   22160460.2584
 -14617747.036 9 -11234633.33148  22148600.344    22148599.4944   22148609.5824
 01  2 20 23 37 30.0000000  0  8G17G30G 5G10G25G 4G24G 6
  -5965705.490 9  -4633331.53745  24438493.335    24438491.9344   24438508.7594
 -27730052.240 9 -21590613.80149  20544622.761    20544622.2944   20544630.0764
 -27308274.309 9 -20727115.85549  20532535.587    20532534.3124   20532543.2044
 -22515875.267 9 -17526901.83448  21006183.858    21006182.3534   21006192.4194
  -1811597.792 8  -1403393.71445  25431720.369    25431719.5684   25431737.2734
   2490260.140 8   2650912.37644  25152833.237    25152832.9474   25152849.9774
 -12939083.658 9 -10065044.69347  22174499.228    22174498.3144   22174508.8404
 -14679068.161 9 -11282415.92048  22136931.198    22136930.3524   22136940.4734
 01  2 20 23 38  0.0000000  0  8G17G30G 5G10G25G 4G24G 6
  -6052172.081 9  -4700707.83245  24422038.887    24422037.6064   24422054.5064
 -27751696.052 9 -21607479.07849  20540504.029    20540503.5654   20540511.3304
 -27264827.582 9 -20693261.28548  20540803.187    20540801.9094   20540810.8204
 -22553943.089 9 -17556564.99948  20998939.767    20998938.2484   20998948.3064
  -1835478.468 8  -1422002.05345  25427176.366    25427175.3234   25427192.8074
   2587019.232 8   2726309.07044  25171245.928    25171245.2104   25171262.1864
 -12865123.649 9 -10007413.56547  22188573.360    22188572.4314   22188582.9864
 -14740309.477 9 -11330136.32048  22125277.309    22125276.4704   22125286.5814
 01  2 20 23 38 30.0000000  0  8G17G30G 5G10G25G 4G24G 6
  -6138471.120 9  -4767953.56045  24405616.450    24405615.2054   24405632.0624
 -27772776.964 9 -21623905.72249  20536492.430    20536491.9534   20536499.7124
 -27220870.212 9 -20659008.80448  20549167.978    20549166.7384   20549175.6194
 -22591432.968 9 -17585777.80848  20991805.684    20991804.1964   20991814.1944
  -1858909.664 7  -1440260.10145  25422717.958    25422716.3404   25422733.4894
   2683695.127 8   2801640.98544  25189643.219    25189642.0224   25189658.8134
 -12791034.654 9  -9949681.92247  22202672.087    22202671.1414   22202681.6794
 -14801473.924 9 -11377796.82148  22113638.047    22113637.1784   22113647.2824
 01  2 20 23 39  0.0000000  0  8G17G30G 5G10G25G 4G24G 6
  -6224600.627 9  -4835067.19545  24389226.321    24389225.1824   24389241.8284
 -27793292.495 9 -21639891.81449  20532588.402    20532587.9354   20532595.7014
 -27176402.407 9 -20624358.59548  20557629.926    20557628.6904   20557637.5414
 -22628342.169 9 -17614538.14948  20984782.158    20984780.6194   20984790.5924
  -1881890.428 8  -1458167.21845  25418344.671    25418343.2174   25418360.6324
   2780287.936 8   2876908.10645  25208024.307    25208023.6284   25208039.7764
 -12716817.361 9  -9891850.31047  22216795.175    22216794.2634   22216804.8474
 -14862559.726 9 -11425396.04548  22102013.740    22102012.8754   22102022.9234
 01  2 20 23 39 30.0000000  0  8G17G30G 5G10G25G 4G24G 6
  -6310560.344 9  -4902048.51945  24372868.512    24372867.2064   24372883.9694
 -27813241.812 9 -21655436.70249  20528792.166    20528791.6834   20528799.4074
 -27131425.444 9 -20589311.63348  20566188.783    20566187.5544   20566196.3464
 -22664669.705 9 -17642845.24348  20977869.204    20977867.6544   20977877.6234
  -1904420.559 8  -1475723.14445  25414057.603    25414056.2254   25414073.2574
   2876795.905 8   2952109.15845  25226389.415    25226388.6944   25226404.3194
 -12642474.115 9  -9833920.55747  22230942.325    22230941.3894   22230951.9454
 -14923566.507 9 -11472933.69748  22090404.425    22090403.5924   22090413.5864
 01  2 20 23 40  0.0000000  0  8G17G30G 5G10G25G 4G24G 6
  -6396347.253 9  -4968895.20345  24356543.518    24356542.2574   24356559.0424
 -27832621.720 9 -21670537.88749  20525104.217    20525103.7374   20525111.4834
 -27085938.247 9 -20553867.08548  20574844.785    20574843.5424   20574852.2594
 -22700411.821 9 -17670696.16048  20971067.669    20971066.1034   20971076.0974
  -1926497.821 8  -1492926.18545  25409856.539    25409855.4034   25409872.1444
   2973220.420 8   3027245.15145  25244739.095    25244737.9524   25244753.2744
 -12568004.483 9  -9775892.31847  22245113.468    22245112.5494   22245123.0914
 -14984491.222 9 -11520407.39148  22078810.757    22078809.8984   22078819.9134
 01  2 20 23 40 30.0000000  0  8G17G30G 5G10G25G 4G24G 6
  -6481962.162 9  -5035607.84946  24340251.424    24340250.1264   24340266.8734
 -27851432.850 9 -21685195.87649  20521524.526    20521524.0454   20521531.8334
 -27039943.652 9 -20518027.16848  20583597.318    20583596.0534   20583604.7514
 -22735568.345 9 -17698090.78048  20964377.454    20964375.9154   20964385.9524
  -1948123.802 8  -1509777.61345  25405741.352    25405739.9834   25405757.0564
   3069558.627 8   3102313.91945  25263071.820    25263070.6304   25263085.8644
 -12493411.534 9  -9717767.99247  22259308.116    22259307.1824   22259317.7274
 -15045334.719 9 -11567817.80448  22067232.519    22067231.6734   22067241.6974
 01  2 20 23 41  0.0000000  0  8G17G30G 5G10G25G 4G24G 6
  -6567404.075 9  -5102185.71846  24323992.129    24323990.7824   24324007.5754
 -27869673.929 9 -21699409.67449  20518053.281    20518052.8084   20518060.6344
 -26993442.547 9 -20481792.57648  20592446.162    20592444.9074   20592453.5844
 -22770137.856 9 -17725027.99648  20957798.984    20957797.4794   20957807.5094
  -1969298.001 8  -1526277.00245  25401711.916    25401710.6914   25401727.6914
   3165809.758 8   3177314.85145  25281387.795    25281386.4504   25281402.2864
 -12418697.138 9  -9659549.04147  22273525.835    22273524.8994   22273535.4694
 -15106096.217 9 -11615164.32648  22055669.960    22055669.1184   22055679.0634
 01  2 20 23 41 30.0000000  0  8G17G30G 5G10G25G 4G24G 6
  -6652672.725 9  -5168628.55446  24307765.926    24307764.5764   24307781.0534
 -27887344.413 9 -21713178.83349  20514690.624    20514690.1664   20514698.0354
 -26946436.650 9 -20445164.62048  20601391.137    20601389.8744   20601398.5374
 -22804119.142 9 -17751506.83248  20951332.482    20951331.0054   20951340.9884
  -1990021.089 8  -1542424.87045  25397768.763    25397767.0614   25397783.9324
   3261972.380 8   3252246.80945  25299686.618    25299685.5134   25299701.5414
 -12343863.570 9  -9601237.21147  22287766.149    22287765.2814   22287775.8914
 -15166775.235 9 -11662446.55948  22044123.081    22044122.2324   22044132.0814
 01  2 20 23 42  0.0000000  0  8G17G30G 5G10G25G 4G24G 6
  -6737766.914 8  -5234935.47145  24291572.746    24291571.3754   24291587.8704
 -27904442.809 9 -21726502.23149  20511436.911    20511436.4484   20511444.2984
 -26898926.970 9 -20408144.12048  20610431.923    20610430.6764   20610439.3454
 -22837510.483 9 -17777525.99048  20944978.303    20944976.8144   20944986.7584
  -2010292.330 8  -1558220.64645  25393911.863    25393909.9814   25393926.3624
   3358045.624 7   3327109.13245  25317968.714    25317967.3474   25317983.2254
 -12268912.235 9  -9542833.62847  22302028.948    22302028.0774   22302038.7254
 -15227370.498 9 -11709663.54548  22032592.158    22032591.2654   22032601.0604
 01  2 20 23 42 30.0000000  0  8G17G30G 5G10G25G 4G24G 6
  -6822686.332 8  -5301106.19945  24275412.629    24275411.4534   24275427.9614
 -27920968.442 9 -21739379.31049  20508292.193    20508291.7254   20508299.5804
 -26850915.003 9 -20370732.22448  20619568.295    20619567.0614   20619575.7444
 -22870310.924 9 -17803084.69648  20938736.565    20938735.0754   20938744.9484
  -2030112.468 8  -1573664.94045  25390140.116    25390138.3834   25390154.5574
   3454028.035 8   3401900.69445  25336233.198    25336231.8024   25336247.9974
 -12193845.591 9  -9484340.19547  22316313.710    22316312.7884   22316323.4834
 -15287881.666 9 -11756814.99248  22021077.115    22021076.2464   22021086.0354
 01  2 20 23 43  0.0000000  0  8G17G30G 5G10G25G 4G24G 6
  -6907428.172 8  -5367138.56245  24259286.496    24259285.2284   24259301.7684
 -27936918.464 9 -21751807.86349  20505257.024    20505256.5564   20505264.3804
 -26802400.183 9 -20332928.49548  20628800.424    20628799.1894   20628807.8244
 -22902517.292 9 -17828180.48648  20932607.868    20932606.3584   20932616.1804
  -2049479.427 8  -1588756.11345  25386454.409    25386452.8354   25386468.8074
   3549920.66117   3476622.30845  25354480.323    25354479.3815   25354495.9154
 -12118663.077 9  -9425756.47747  22330620.461    22330619.5544   22330630.3324
 -15348306.219 9 -11803898.95248  22009578.502    22009577.6774   22009587.5174
 01  2 20 23 43 30.0000000  0  8G17G30G 5G10G25G 4G24G 6
  -6991993.213 8  -5433033.16345  24243193.980    24243192.7274   24243209.2874
 -27952293.703 9 -21763788.53449  20502331.243    20502330.7624   20502338.5444
 -26753385.161 9 -20294734.99548  20638127.701    20638126.4624   20638135.0984
 -22934129.592 9 -17852813.37448  20926592.242    20926590.7134   20926600.4514
  -2068394.508 8  -1603495.10945  25382854.973    25382853.5574   25382869.0254
   3645720.854 8   3551271.89345  25372710.081    25372709.3294   25372725.9504
 -12043368.038 9  -9367085.06847  22344948.686    22344947.7644   22344958.5754
 -15408644.726 9 -11850915.86548  21998096.366    21998095.5364   21998105.3874
 01  2 20 23 44  0.0000000  0  8G17G30G 5G10G25G 4G24G 6
  -7076380.157 8  -5498788.99145  24227135.223    24227134.0154   24227150.8444
 -27967092.391 9 -21775319.95049  20499515.103    20499514.6214   20499522.4024
 -26703870.589 9 -20256152.24248  20647550.021    20647548.7794   20647557.4354
 -22965145.866 9 -17876981.82848  20920690.002    20920688.4694   20920698.1414
  -2086857.056 8  -1617881.47945  25379341.319    25379340.1594   25379356.0074
   3741428.547 8   3625849.39345  25390922.651    25390922.0704   25390938.8194
 -11967961.748 9  -9308326.98447  22359298.175    22359297.2304   22359307.9814
 -15468895.783 9 -11897864.65648  21986630.931    21986630.1134   21986639.9084
 01  2 20 23 44 30.0000000  0  8G17G30G 5G10G25G 4G24G 6
  -7160590.425 8  -5564407.15145  24211110.440    24211109.0684   24211125.9924
 -27981315.773 9 -21786403.07149  20496808.480    20496808.0154   20496815.7844
 -26653859.648 9 -20217182.69848  20657066.800    20657065.5514   20657074.2344
 -22995566.985 9 -17900686.51948  20914900.977    20914899.4474   20914909.0734
  -2104869.624 8  -1631917.21745  25375913.405    25375912.4514   25375928.1894
   3837040.479 8   3700352.23445  25409117.315    25409116.6554   25409133.1984
 -11892447.842 9  -9249485.03647  22373668.100    22373667.1624   22373677.8694
 -15529060.417 9 -11944746.09448  21975181.934    21975181.0894   21975190.8754
 01  2 20 23 45  0.0000000  0  8G17G30G 5G10G25G 4G24G 6
  -7244623.333 8  -5629887.09945  24195119.462    24195117.9694   24195134.8244
 -27994962.915 9 -21797037.17449  20494211.531    20494211.0234   20494218.7764
 -26603353.954 9 -20177827.63748  20666677.683    20666676.4584   20666685.1664
 -23025391.683 9 -17923926.47248  20909225.464    20909223.9364   20909233.5294
  -2122431.584 7  -1645601.85944  25372570.714    25372570.0694   25372586.2934
   3932555.334 8   3774779.49445  25427293.737    25427292.6314   25427308.8684
 -11816827.930 9  -9190560.49447  22388058.197    22388057.2204   22388067.9074
 -15589138.095 9 -11991559.77948  21963749.384    21963748.5844   21963758.3454
 01  2 20 23 45 30.0000000  0  8G17G30G 5G10G25G 4G24G 6
  -7328475.092 8  -5695225.88245  24179162.598    24179161.2774   24179178.0424
 -28008029.948 9 -21807219.25449  20491724.891    20491724.3944   20491732.1364
 -26552351.987 9 -20138085.87248  20676383.015    20676381.8094   20676390.5354
 -23054615.683 9 -17946698.34248  20903664.292    20903662.7664   20903672.3064
  -2139540.428 7  -1658933.51845  25369313.932    25369313.3214   25369331.0184
   4027975.781 8   3849133.18345  25445452.041    25445450.8714   25445466.5704
 -11741101.355 9  -9131552.83247  22402468.491    22402467.5244   22402478.2244
 -15649124.947 9 -12038302.68948  21952334.156    21952333.3564   21952343.1124
 01  2 20 23 46  0.0000000  0  8G17G30G 5G10G25G 4G24G 6
  -7412146.323 8  -5760423.99945  24163239.904    24163238.6194   24163255.5744
 -28020517.598 9 -21816949.86149  20489348.558    20489348.0404   20489355.7684
 -26500856.251 9 -20097959.34748  20686182.377    20686181.1654   20686189.8934
 -23083239.265 9 -17969002.35848  20898217.334    20898215.8264   20898225.3504
  -2156197.621 8  -1671913.13745  25366144.507    25366143.1154   25366161.1864
   4123299.381 8   3923411.38545  25463591.594    25463590.7324   25463605.9484
 -11665271.194 9  -9072464.45247  22416898.445    22416897.5254   22416908.2174
 -15709021.367 9 -12084975.13448  21940936.190    21940935.3774   21940945.0924
 01  2 20 23 46 30.0000000  0  8G17G30G 5G10G25G 4G24G 6
  -7495634.656 8  -5825479.58145  24147352.115    24147351.0384   24147367.9804
 -28032423.234 9 -21826226.96149  20487082.955    20487082.4384   20487090.1434
 -26448866.368 9 -20057447.78448  20696075.818    20696074.5964   20696083.3004
 -23111259.227 9 -17990836.02448  20892885.230    20892883.7284   20892893.2334
  -2172401.258 8  -1684539.32445  25363061.347    25363059.9194   25363077.8444
   4218526.756 8   3997614.62745  25481712.597    25481712.1984   25481726.7504
 -11589336.966 9  -9013294.98447  22431348.256    22431347.3224   22431358.0794
 -15768824.709 9 -12131575.05548  21929555.984    21929555.1354   21929564.7544
 01  2 20 23 47  0.0000000  0  8G17G30G 5G10G25G 4G24G 6
  -7578942.890 8  -5890394.82645  24131498.999    24131497.8224   24131514.5234
 -28043749.444 9 -21835052.55149  20484927.586    20484927.0804   20484934.7914
 -26396387.288 9 -20016555.01948  20706062.353    20706061.1024   20706069.7704
 -23138678.065 9 -18012201.27748  20887667.547    20887666.0504   20887675.5074
  -2188155.263 8  -1696815.16845  25360063.408    25360062.4134   25360080.1274
   4313653.202 8   4071739.22945  25499814.729    25499813.9684   25499828.7074
 -11513304.134 9  -8954048.67147  22445816.874    22445815.9554   22445826.7574
 -15828537.691 9 -12178104.55548  21918192.977    21918192.1124   21918201.6564
 01  2 20 23 47 30.0000000  0  8G17G30G 5G10G25G 4G24G 6
  -7662068.772 8  -5955167.96945  24115680.589    24115679.4634   24115695.9514
 -28054493.993 9 -21843424.91149  20482882.932    20482882.4464   20482890.1234
 -26343418.858 9 -19975280.95548  20716141.966    20716140.7344   20716149.4094
 -23165492.974 9 -18033095.94748  20882564.783    20882563.2924   20882572.7504
  -2203457.936 8  -1708739.29845  25357151.554    25357150.4004   25357168.1314
   4408680.101 7   4145786.28645  25517897.776    25517896.3494   25517911.7504
 -11437172.731 9  -8894725.56647  22460304.309    22460303.3754   22460314.1914
 -15888157.752 9 -12224561.66148  21906847.577    21906846.7164   21906856.2444
 01  2 20 23 48  0.0000000  0  8G17G30G 5G10G25G 4G24G 6
  -7745011.711 9  -6019798.56045  24099897.015    24099895.7904   24099912.0244
 -28064656.166 9 -21851343.47349  20480949.128    20480948.6544   20480956.2874
 -26289962.821 9 -19933626.93548  20726314.302    20726313.0724   20726321.7604
 -23191703.110 9 -18053519.36548  20877577.067    20877575.5854   20877585.0554
  -2218309.86217  -1720312.23445  25354325.134    25354324.0065   25354342.3254
   4503605.711 8   4219754.38945  25535960.952    25535959.8934   25535975.5694
 -11360944.982 9  -8835327.38047  22474810.029    22474809.1134   22474819.9504
 -15947684.268 9 -12270945.87548  21895519.949    21895519.1184   21895528.6464
 01  2 20 23 48 30.0000000  0  8G17G30G 5G10G25G 4G24G 6
  -7827771.348 9  -6084286.31145  24084148.378    24084147.1224   24084163.1084
 -28074235.841 9 -21858808.13449  20479126.189    20479125.7164   20479133.2834
 -26236020.926 9 -19891594.31748  20736579.067    20736577.8464   20736586.5684
 -23217307.470 9 -18073470.74348  20872704.638    20872703.1684   20872712.6504
  -2232711.397 7  -1731534.23244  25351584.544    25351583.6764   25351601.7894
   4598429.003 7   4293642.81945  25554004.699    25554004.2824   25554019.5444
 -11284622.827 9  -8775855.62847  22489333.648    22489332.7094   22489343.6254
 -16007116.677 9 -12317256.74348  21884210.292    21884209.4574   21884218.9584
 01  2 20 23 49  0.0000000  0  8G17G30G 5G10G25G 4G24G 6
  -7910346.688 9  -6148630.44345  24068434.910    24068433.5704   24068449.2864
 -28083231.942 9 -21865818.06849  20477414.322    20477413.8314   20477421.3604
 -26181594.379 9 -19849184.05648  20746936.103    20746934.8564   20746943.6054
 -23242304.976 9 -18092949.25248  20867947.703    20867946.2314   20867955.6904
  -2246662.447 7  -1742405.20244  25348929.414    25348928.4614   25348946.6184
   4693149.864 7   4367451.41844  25572029.137    25572028.5444   25572044.2654
 -11208207.115 9  -8716310.97747  22503875.051    22503874.1524   22503885.0394
 -16066453.615 9 -12363493.23048  21872918.779    21872917.9244   21872927.4314
 01  2 20 23 49 30.0000000  0  8G17G30G 5G10G25G 4G24G 6
  -7992737.143 9  -6212830.53845  24052756.455    24052755.1454   24052770.6994
 -28091643.650 9 -21872372.63349  20475813.605    20475813.1304   20475820.6534
 -26126684.648 9 -19806397.29348  20757385.058    20757383.8424   20757392.5994
 -23266694.556 9 -18111954.06048  20863306.478    20863304.9854   20863314.4494
  -2260163.238 8  -1752925.28244  25346360.330    25346359.7974   25346377.0674
   4787766.862 7   4441179.06544  25590033.813    25590033.4804   25590049.0044
 -11131699.966 9  -8656695.08847  22518433.916    22518433.0034   22518443.8424
 -16125694.423 9 -12409654.81248  21861645.548    21861644.6784   21861654.2214
 01  2 20 23 50  0.0000000  0  8G17G30G 5G10G25G 4G24G 6
  -8074940.745 9  -6276885.02145  24037113.482    24037112.1544   24037127.7674
 -28099469.139 9 -21878470.39449  20474324.489    20474323.9904   20474331.4944
 -26071292.043 9 -19763234.24948  20767925.966    20767924.7454   20767933.4654
 -23290474.102 9 -18130483.50248  20858781.340    20858779.8374   20858789.2944
  -2273213.317 8  -1763094.15345  25343877.469    25343877.6194   25343893.6524
   4882280.923 8   4514826.49844  25608019.130    25608018.8874   25608034.2804
 -11055101.554 9  -8597008.06847  22533010.189    22533009.2824   22533020.0214
 -16184836.677 9 -12455739.59148  21850391.062    21850390.2104   21850399.7304
 01  2 20 23 50 30.0000000  0  8G17G30G 5G10G25G 4G24G 6
  -8156958.132 9  -6340794.42445  24021506.169    24021504.7384   24021520.1594
 -28106708.938 9 -21884111.78849  20472946.797    20472946.3044   20472953.8164
 -26015419.157 9 -19719696.98448  20778558.244    20778557.0144   20778565.7374
 -23313643.880 9 -18148537.82348  20854372.234    20854370.7104   20854380.1594
  -2285813.582 8  -1772912.54245  25341480.121    25341479.6884   25341496.5854
   4976690.009 8   4588392.14044  25625984.634    25625984.3024   25625999.2214
 -10978415.037 9  -8537252.41847  22547603.178    22547602.3104   22547612.9974
 -16243880.568 9 -12501747.74948  21839155.241    21839154.4184   21839163.9014
 01  2 20 23 51  0.0000000  0  8G17G30G 5G10G25G 4G24G 6
  -8238789.254 9  -6404558.67446  24005934.236    24005932.8294   24005947.6864
 -28113362.918 9 -21889296.69649  20471680.569    20471680.0614   20471687.5834
 -25959068.119 9 -19675787.12248  20789281.541    20789280.3214   20789288.9874
 -23336203.166 9 -18166116.43848  20850079.274    20850077.7824   20850087.2514
  -2297964.535 8  -1782380.81945  25339168.190    25339167.4994   25339184.5044
   5070992.229 8   4661874.56744  25643929.571    25643928.8374   25643944.1914
 -10901642.049 9  -8477429.38647  22562212.703    22562211.7864   22562222.4314
 -16302825.893 9 -12547679.09248  21827938.296    21827937.4434   21827946.8714
 01  2 20 23 51 30.0000000  0  8G17G30G 5G10G25G 4G24G 6
  -8320432.512 9  -6468176.55446  23990397.906    23990396.4844   23990411.2264
 -28119429.777 9 -21894024.10249  20470526.028    20470525.5304   20470533.0774
 -25902239.486 9 -19631505.11348  20800095.756    20800094.5044   20800103.1694
 -23358150.008 9 -18183217.81548  20845902.911    20845901.3934   20845910.8644
  -2309665.959 8  -1791498.81945  25336941.534    25336940.6414   25336957.7054
   5165188.419 8   4735274.32644  25661854.342    25661853.9784   25661868.9354
 -10824783.747 9  -8417539.87147  22576838.419    22576837.5504   22576848.2064
 -16361670.718 9 -12593532.12748  21816740.434    21816739.5564   21816748.9404
 01  2 20 23 52  0.0000000  0  8G17G30G 5G10G25G 4G24G 6
  -8401886.830 9  -6531647.20546  23974897.408    23974896.0854   23974910.8064
 -28124908.326 9 -21898293.07749  20469483.459    20469482.9524   20469490.5274
 -25844934.352 9 -19586851.78848  20811000.568    20810999.3254   20811008.0404
 -23379483.027 9 -18199840.88348  20841843.334    20841841.8434   20841851.2974
  -2320917.499 8  -1800266.29345  25334800.308    25334799.3134   25334816.7124
   5259277.893 8   4808590.94745  25679758.981    25679758.6134   25679773.4614
 -10747841.164 9  -8357584.67547  22591480.179    22591479.3244   22591489.9704
 -16420413.520 9 -12639305.64648  21805562.029    21805561.1644   21805570.5174
 01  2 20 23 52 30.0000000  0  8G17G30G 5G10G25G 4G24G 6
  -8483151.660 9  -6594970.22646  23959432.925    23959431.7014   23959446.4224
 -28129798.208 9 -21902103.36249  20468552.931    20468552.4264   20468559.9914
 -25787154.470 9 -19541828.54648  20821995.746    20821994.5134   20822003.2664
 -23400201.523 9 -18215985.12248  20837900.687    20837899.2034   20837908.6294
  -2331719.783 8  -1808683.70745  25332745.023    25332744.0074   25332761.4024
   5353260.007 8   4881823.94854  25697642.841    25697642.4434   25697657.1745
 -10670815.888 9  -8297565.05147  22606137.594    22606136.7274   22606147.5154
 -16479053.481 9 -12684999.04848  21794403.170    21794402.2894   21794411.6464
 01  2 20 23 53  0.0000000  0  8G17G30G 5G10G25G 4G24G 6
  -8564226.359 9  -6658145.09746  23944004.506    23944003.3124   23944018.1654
 -28134098.769 9 -21905454.42449  20467734.496    20467733.9934   20467741.6004
 -25728901.508 9 -19496436.66048  20833080.896    20833079.6794   20833088.4654
 -23420304.940 9 -18231650.06448  20834075.093    20834073.5914   20834082.9684
  -2342072.962 8  -1816751.12844  25330774.945    25330774.0714   25330791.4844
   5447134.703 8   4954973.20245  25715506.447    25715506.0104   25715520.4614
 -10593709.907 9  -8237482.53347  22620810.369    22620809.4704   22620820.3634
 -16537589.561 9 -12730611.49748  21783264.073    21783263.2014   21783272.5534
 01  2 20 23 53 30.0000000  0  7G17G30G 5G10G25G24G 6
  -8645109.840 9  -6721170.98045  23928612.520    23928611.4284   23928626.4854
 -28137808.947 9 -21908345.45549  20467028.430    20467027.9414   20467035.5564
 -25670176.352 9 -19450676.83948  20844255.940    20844254.7324   20844263.5354
 -23439791.773 9 -18246834.56548  20830366.854    20830365.3684   20830374.6684
  -2351976.875 7  -1824468.47544  25328890.142    25328889.0534   25328907.1544
 -10516524.094 9  -8177337.81247  22635498.376    22635497.4514   22635508.4124
 -16596020.364 9 -12776141.91348  21772145.007    21772144.1094   21772153.4434
 01  2 20 23 54  0.0000000  0  7G17G30G 5G10G25G24G 6
  -8725803.411 8  -6784048.87245  23913256.760    23913255.6084   23913270.8084
 -28140930.306 9 -21910777.65249  20466434.481    20466433.9734   20466441.5664
 -25610982.637 9 -19404551.89548  20855520.234    20855518.9944   20855527.7804
 -23458663.194 9 -18261539.50448  20826775.717    20826774.2044   20826783.4834
  -2361434.047 7  -1831837.76944  25327090.035    25327088.8654   25327107.8344
 -10439261.394 9  -8117133.17147  22650200.934    22650200.0734   22650211.0544
 -16654346.952 9 -12821591.11648  21761045.764    21761044.8624   21761054.1294
 01  2 20 23 54 30.0000000  0  7G17G30G 5G10G25G24G 6
  -8806304.985 8  -6846777.16945  23897937.493    23897936.3744   23897951.7354
 -28143461.144 9 -21912749.71749  20465952.852    20465952.3564   20465959.9404
 -25551320.504 9 -19358061.95948  20866873.654    20866872.3954   20866881.1504
 -23476916.935 9 -18275763.14848  20823302.082    20823300.5794   20823309.8284
  -2370443.415 8  -1838858.10044  25325374.998    25325373.8084   25325393.0384
 -10361922.396 9  -8056869.08447  22664918.181    22664917.2844   22664928.2054
 -16712566.822 9 -12866957.17048  21749966.811    21749965.9024   21749975.1474
 01  2 20 23 55  0.0000000  0  7G17G30G 5G10G25G24G 6
  -8886613.923 8  -6909355.38545  23882654.870    23882653.8134   23882669.1964
 -28145400.880 9 -21914261.19149  20465583.738    20465583.2524   20465590.7724
 -25491191.595 9 -19311208.31148  20878315.831    20878314.5844   20878323.3134
 -23494552.101 9 -18289504.79048  20819946.151    20819944.6334   20819953.8944
  -2379005.410 8  -1845529.76344  25323745.727    25323744.9454   25323763.9094
 -10284508.659 9  -7996546.76847  22679649.663    22679648.7554   22679659.5824
 -16770678.736 9 -12912239.10748  21738908.334    21738907.4784   21738916.6504
 01  2 20 23 55 30.0000000  0  7G17G30G 5G10G25G24G 6
  -8966731.139 8  -6971784.17945  23867408.886    23867407.9184   23867423.3364
 -28146750.383 9 -21915312.74349  20465326.957    20465326.4594   20465333.9404
 -25430599.137 9 -19263993.45748  20889846.200    20889844.9414   20889853.6944
 -23511569.389 9 -18302764.97348  20816707.790    20816706.2844   20816715.5794
  -2387121.360 8  -1851853.92345  25322201.328    25322200.6264   25322219.5114
 -10207023.149 9  -7936168.53047  22694394.816    22694393.8674   22694404.6394
 -16828682.992 9 -12957437.16048  21727870.447    21727869.5694   21727878.6104
 01  2 20 23 56  0.0000000  0  7G17G30G 5G10G25G24G 6
  -9046656.295 9  -7034063.32145  23852199.622    23852198.4874   23852213.8614
 -28147509.764 9 -21915904.45249  20465182.444    20465181.9594   20465189.4074
 -25369545.149 9 -19216418.95948  20901464.418    20901463.1584   20901471.9374
 -23527968.411 9 -18315543.38148  20813587.100    20813585.5854   20813594.8694
  -2394792.232 8  -1857831.29245  25320741.576    25320741.1954   25320759.6874
 -10129467.698 9  -7875735.78247  22709153.145    22709152.2014   22709163.0314
 -16886578.938 9 -13002550.80848  21716853.190    21716852.3264   21716861.2844
 01  2 20 23 56 30.0000000  0  7G17G30G 5G10G25G24G 6
  -9126387.441 9  -7096191.29345  23837027.273    23837026.1904   23837041.1984
 -28147677.385 9 -21916035.05149  20465150.534    20465150.0424   20465157.4654
 -25308030.194 9 -19168485.26648  20913170.313    20913169.0744   20913177.8974
 -23543747.605 9 -18327838.80648  20810584.366    20810582.8634   20810592.1054
  -2402017.585 7  -1863461.45545  25319366.628    25319365.9894   25319384.9834
 -10051842.535 9  -7815248.70247  22723924.656    22723923.7554   22723934.6674
 -16944364.296 9 -13047578.28248  21705856.987    21705856.1194   21705865.0014
 01  2 20 23 57  0.0000000  0  7G17G30G 5G10G25G24G 6
  -9205923.989 9  -7158167.59446  23821891.861    23821890.7394   23821905.6094
 -28147252.962 9 -21915704.31949  20465231.263    20465230.7664   20465238.1854
 -25246055.591 9 -19120193.41148  20924963.748    20924962.4904   20924971.2974
 -23558905.929 9 -18339650.43748  20807699.827    20807698.3104   20807707.4774
  -2408797.621 7  -1868744.65245  25318076.224    25318075.5704   25318095.0034
  -9974148.901 9  -7754708.27647  22738709.274    22738708.3904   22738719.3904
 -17002038.082 9 -13092518.80948  21694881.977    21694881.1174   21694889.9534
 01  2 20 23 57 30.0000000  0  7G17G30G 5G10G25G24G 6
  -9285266.332 9  -7219992.56746  23806793.433    23806792.1614   23806807.0894
 -28146236.514 9 -21914912.27549  20465424.684    20465424.1824   20465431.6014
 -25183624.073 9 -19071545.51948  20936844.124    20936842.8554   20936851.6354
 -23573443.465 9 -18350978.34148  20804933.387    20804931.8564   20804940.9644
  -2415133.550 7  -1873681.79445  25316871.062    25316870.1654   25316889.2114
  -9896389.123 9  -7694116.31047  22753506.472    22753505.6164   22753516.7264
 -17059599.833 9 -13137372.04948  21683928.291    21683927.4604   21683936.2514
 01  2 20 23 58  0.0000000  0  7G17G30G 5G10G25G24G 6
  -9364412.891 9  -7281664.97846  23791732.256    23791731.0484   23791745.8384
 -28144627.292 9 -21913658.31549  20465730.903    20465730.3804   20465737.8424
 -25120736.532 9 -19022542.27848  20948811.252    20948809.9914   20948818.8034
 -23587359.115 9 -18361821.64748  20802285.303    20802283.7794   20802292.8224
  -2421025.438 7  -1878272.86945  25315749.893    25315749.5614   25315767.6044
  -9818564.295 9  -7633473.65247  22768316.129    22768315.2234   22768326.3774
 -17117047.728 9 -13182136.54948  21672996.259    21672995.4284   21673004.1874
 01  2 20 23 58 30.0000000  0  7G17G30G 5G10G25G24G 6
  -9443363.573 9  -7343184.74246  23776708.263    23776707.1394   23776721.8514
 -28142425.549 9 -21911942.65549  20466149.892    20466149.3704   20466156.8364
 -25057395.091 9 -18973185.35048  20960864.743    20960863.4964   20960872.3214
 -23600652.690 9 -18372180.22048  20799755.639    20799754.1204   20799763.1034
  -2426474.179 7  -1882518.64144  25314712.789    25314712.2394   25314730.2514
  -9740675.986 9  -7572781.53947  22783137.845    22783136.9724   22783148.1124
 -17174381.113 9 -13226811.83348  21662086.002    21662085.1514   21662093.9254
 01  2 20 23 59  0.0000000  0  7G17G30G 5G10G25G24G 6
  -9522118.171 9  -7404551.73046  23761721.582    23761720.4144   23761735.0734
 -28139631.329 9 -21909765.33949  20466681.556    20466681.0624   20466688.5414
 -24993602.036 9 -18923476.53048  20973004.210    20973002.9524   20973011.7824
 -23613323.738 9 -18382053.72748  20797344.352    20797342.8294   20797351.7994
  -2431480.229 8  -1886419.47544  25313760.074    25313759.5674   25313777.5244
  -9662725.679 9  -7512041.12447  22797971.332    22797970.5034   22797981.5664
 -17231599.209 9 -13271397.28248  21651197.677    21651196.8184   21651205.6254
